Time,TemperatureF,DewpointF,PressureIn,WindDirection,WindDirectionDegrees,WindSpeedMPH,WindSpeedGustMPH,Humidity,HourlyPrecipIn,Conditions,Clouds,dailyrainin,SolarRadiationWatts/m^2,SoftwareType,DateUTC
2013-07-29 00:05:00,89.0,34.6,29.23,SSW,196,6.0,7.3,14,-99.99,,,0.00,0,rob ver 1A,2013-07-29 07:05:00,
2013-07-29 00:10:00,88.5,35.0,29.23,SSW,193,5.5,7.0,15,-99.99,,,0.00,0,rob ver 1A,2013-07-29 07:10:00,
2013-07-29 00:15:00,88.4,34.4,29.23,South,190,7.1,8.5,14,-99.99,,,0.00,0,rob ver 1A,2013-07-29 07:15:00,
2013-07-29 00:20:00,88.5,34.0,29.23,South,185,7.4,9.3,14,-99.99,,,0.00,0,rob ver 1A,2013-07-29 07:20:00,
2013-07-29 00:25:00,88.2,33.9,29.23,South,181,5.8,7.3,14,-99.99,,,0.00,0,rob ver 1A,2013-07-29 07:25:00,
2013-07-29 00:30:00,88.3,33.3,29.23,South,172,6.2,8.6,14,-99.99,,,0.00,0,rob ver 1A,2013-07-29 07:30:00,
2013-07-29 00:36:00,88.1,33.6,29.23,SSE,162,5.2,6.2,14,-99.99,,,0.00,0,rob ver 1A,2013-07-29 07:36:00,
2013-07-29 00:41:00,87.7,34.0,29.23,SE,141,3.8,4.5,14,-99.99,,,0.00,0,rob ver 1A,2013-07-29 07:41:00,
2013-07-29 00:46:00,87.4,34.5,29.23,SE,136,4.0,4.5,15,-99.99,,,0.00,0,rob ver 1A,2013-07-29 07:46:00,
2013-07-29 00:51:00,87.5,34.6,29.23,SE,129,5.5,6.7,15,-99.99,,,0.00,0,rob ver 1A,2013-07-29 07:51:00,
2013-07-29 00:56:00,87.3,34.9,29.23,SE,130,4.2,4.7,15,-99.99,,,0.00,0,rob ver 1A,2013-07-29 07:56:00,
2013-07-29 01:01:00,87.0,35.7,29.23,ESE,121,4.3,5.4,16,-99.99,,,0.00,0,rob ver 1A,2013-07-29 08:01:00,
2013-07-29 01:06:00,86.8,36.8,29.23,SE,125,4.7,5.3,16,-99.99,,,0.00,0,rob ver 1A,2013-07-29 08:06:00,
2013-07-29 01:12:00,86.7,37.1,29.23,ESE,121,4.5,5.0,17,-99.99,,,0.00,0,rob ver 1A,2013-07-29 08:12:00,
2013-07-29 01:17:00,86.6,37.2,29.23,SE,129,4.9,5.5,17,-99.99,,,0.00,0,rob ver 1A,2013-07-29 08:17:00,
2013-07-29 01:22:00,86.2,37.4,29.23,SE,129,4.4,5.0,17,-99.99,,,0.00,0,rob ver 1A,2013-07-29 08:22:00,
2013-07-29 01:27:00,86.0,37.4,29.26,SE,125,3.9,5.1,17,-99.99,,,0.00,0,rob ver 1A,2013-07-29 08:27:00,
2013-07-29 01:32:00,86.0,37.4,29.23,SE,133,4.8,5.4,17,-99.99,,,0.00,0,rob ver 1A,2013-07-29 08:32:00,
2013-07-29 01:37:00,85.8,37.7,29.23,SE,144,5.2,6.0,17,-99.99,,,0.00,0,rob ver 1A,2013-07-29 08:37:00,
2013-07-29 01:43:00,85.4,38.1,29.23,SSE,157,6.1,6.6,18,-99.99,,,0.00,0,rob ver 1A,2013-07-29 08:43:00,
2013-07-29 01:48:00,85.0,38.2,29.23,SSE,162,4.7,5.2,18,-99.99,,,0.00,0,rob ver 1A,2013-07-29 08:48:00,
2013-07-29 01:53:00,84.8,38.2,29.23,SSE,149,5.0,5.7,19,-99.99,,,0.00,0,rob ver 1A,2013-07-29 08:53:00,
2013-07-29 01:58:00,85.4,37.4,29.26,SE,142,4.4,5.4,18,-99.99,,,0.00,0,rob ver 1A,2013-07-29 08:58:00,
2013-07-29 02:03:00,85.4,37.5,29.26,ESE,102,2.6,3.0,18,-99.99,,,0.00,0,rob ver 1A,2013-07-29 09:03:00,
2013-07-29 02:08:00,85.3,37.6,29.26,East,99,3.0,3.8,18,-99.99,,,0.00,0,rob ver 1A,2013-07-29 09:08:00,
2013-07-29 02:13:00,85.5,36.4,29.26,ESE,120,3.6,4.9,17,-99.99,,,0.00,0,rob ver 1A,2013-07-29 09:13:00,
2013-07-29 02:18:00,85.7,36.5,29.26,SE,128,4.8,5.6,17,-99.99,,,0.00,0,rob ver 1A,2013-07-29 09:18:00,
2013-07-29 02:24:00,85.1,37.5,29.26,ESE,122,5.6,6.2,18,-99.99,,,0.00,0,rob ver 1A,2013-07-29 09:24:00,
2013-07-29 02:29:00,84.7,37.5,29.23,SE,136,4.8,5.6,18,-99.99,,,0.00,0,rob ver 1A,2013-07-29 09:29:00,
2013-07-29 02:34:00,84.4,37.8,29.23,SE,140,3.7,4.3,19,-99.99,,,0.00,0,rob ver 1A,2013-07-29 09:34:00,
2013-07-29 02:39:00,84.2,37.5,29.23,SE,136,3.9,4.5,18,-99.99,,,0.00,0,rob ver 1A,2013-07-29 09:39:00,
2013-07-29 02:44:00,83.9,37.8,29.23,SE,135,4.3,4.9,19,-99.99,,,0.00,0,rob ver 1A,2013-07-29 09:44:00,
2013-07-29 02:49:00,83.8,37.6,29.23,SE,136,6.2,7.0,19,-99.99,,,0.00,0,rob ver 1A,2013-07-29 09:49:00,
2013-07-29 02:55:00,83.8,37.1,29.23,SE,136,5.7,6.8,18,-99.99,,,0.00,0,rob ver 1A,2013-07-29 09:55:00,
2013-07-29 03:00:00,84.4,36.2,29.23,SE,144,6.1,6.7,17,-99.99,,,0.00,0,rob ver 1A,2013-07-29 10:00:00,
2013-07-29 03:08:00,84.2,36.8,29.23,SE,138,3.9,4.6,18,-99.99,,,0.00,0,rob ver 1A,2013-07-29 10:08:00,
2013-07-29 03:14:00,83.7,37.1,29.26,ENE,76,2.0,2.6,18,-99.99,,,0.00,0,rob ver 1A,2013-07-29 10:14:00,
2013-07-29 03:19:00,82.7,37.7,29.26,NE,51,3.3,4.0,20,-99.99,,,0.00,0,rob ver 1A,2013-07-29 10:19:00,
2013-07-29 03:25:00,83.0,36.9,29.26,ESE,102,4.1,4.8,19,-99.99,,,0.00,0,rob ver 1A,2013-07-29 10:25:00,
2013-07-29 03:31:00,83.3,36.7,29.26,East,101,2.9,3.3,18,-99.99,,,0.00,0,rob ver 1A,2013-07-29 10:31:00,
2013-07-29 03:37:00,83.2,36.9,29.26,ENE,76,3.2,3.8,19,-99.99,,,0.00,0,rob ver 1A,2013-07-29 10:37:00,
2013-07-29 03:42:00,82.5,37.3,29.26,NE,47,3.7,3.9,20,-99.99,,,0.00,0,rob ver 1A,2013-07-29 10:42:00,
2013-07-29 03:47:00,82.0,37.8,29.26,NE,45,3.0,4.1,20,-99.99,,,0.00,0,rob ver 1A,2013-07-29 10:47:00,
2013-07-29 03:52:00,81.9,37.9,29.26,East,87,2.9,3.4,20,-99.99,,,0.00,0,rob ver 1A,2013-07-29 10:52:00,
2013-07-29 03:57:00,81.8,37.5,29.26,ESE,102,2.2,2.6,20,-99.99,,,0.00,0,rob ver 1A,2013-07-29 10:57:00,
2013-07-29 04:03:00,81.6,37.8,29.26,NNE,31,2.1,2.5,20,-99.99,,,0.00,0,rob ver 1A,2013-07-29 11:03:00,
2013-07-29 04:08:00,81.7,37.7,29.26,NE,47,3.3,3.6,20,-99.99,,,0.00,0,rob ver 1A,2013-07-29 11:08:00,
2013-07-29 04:14:00,81.7,37.7,29.26,NE,44,2.4,2.8,20,-99.99,,,0.00,0,rob ver 1A,2013-07-29 11:14:00,
2013-07-29 04:19:00,81.8,37.4,29.26,NE,56,3.0,3.3,20,-99.99,,,0.00,0,rob ver 1A,2013-07-29 11:19:00,
2013-07-29 04:24:00,81.9,37.3,29.26,ENE,71,3.1,3.5,20,-99.99,,,0.00,0,rob ver 1A,2013-07-29 11:24:00,
2013-07-29 04:31:00,81.9,37.3,29.26,East,91,1.6,1.9,20,-99.99,,,0.00,0,rob ver 1A,2013-07-29 11:31:00,
2013-07-29 04:36:00,81.6,37.5,29.26,NE,53,3.0,3.4,20,-99.99,,,0.00,0,rob ver 1A,2013-07-29 11:36:00,
2013-07-29 04:42:00,81.4,37.6,29.26,NE,48,3.7,4.0,21,-99.99,,,0.00,0,rob ver 1A,2013-07-29 11:42:00,
2013-07-29 04:47:00,81.1,37.8,29.26,ENE,66,3.6,4.6,21,-99.99,,,0.00,0,rob ver 1A,2013-07-29 11:47:00,
2013-07-29 04:52:00,80.9,38.0,29.26,NE,55,3.6,4.2,21,-99.99,,,0.00,0,rob ver 1A,2013-07-29 11:52:00,
2013-07-29 04:58:00,80.5,37.7,29.26,NE,55,5.1,6.2,21,-99.99,,,0.00,0,rob ver 1A,2013-07-29 11:58:00,
2013-07-29 05:04:00,80.1,37.9,29.26,NE,49,4.3,5.8,21,-99.99,,,0.00,0,rob ver 1A,2013-07-29 12:04:00,
2013-07-29 05:09:00,80.7,37.5,29.26,ENE,57,3.5,4.2,21,-99.99,,,0.00,0,rob ver 1A,2013-07-29 12:09:00,
2013-07-29 05:14:00,80.5,37.5,29.26,ENE,62,3.5,4.3,21,-99.99,,,0.00,0,rob ver 1A,2013-07-29 12:14:00,
2013-07-29 05:20:00,80.4,37.5,29.26,ENE,76,4.2,5.0,21,-99.99,,,0.00,0,rob ver 1A,2013-07-29 12:20:00,
2013-07-29 05:26:00,80.2,37.7,29.26,ENE,66,3.2,3.8,21,-99.99,,,0.00,.33,rob ver 1A,2013-07-29 12:26:00,
2013-07-29 05:31:00,80.0,37.6,29.29,ENE,71,3.5,4.1,21,-99.99,,,0.00,1.319,rob ver 1A,2013-07-29 12:31:00,
2013-07-29 05:36:00,80.1,37.5,29.29,ENE,66,3.2,3.8,21,-99.99,,,0.00,3.957,rob ver 1A,2013-07-29 12:36:00,
2013-07-29 05:44:00,80.2,37.3,29.29,ENE,71,4.0,4.9,21,-99.99,,,0.00,15.5,rob ver 1A,2013-07-29 12:44:00,
2013-07-29 05:52:00,80.0,37.3,29.29,ENE,72,4.5,5.9,21,-99.99,,,0.00,35.61,rob ver 1A,2013-07-29 12:52:00,
2013-07-29 05:58:00,80.4,37.1,29.29,ENE,69,4.0,5.4,21,-99.99,,,0.00,72.5,rob ver 1A,2013-07-29 12:58:00,
2013-07-29 06:03:00,80.5,37.0,29.29,ENE,59,4.3,4.9,20,-99.99,,,0.00,142.4,rob ver 1A,2013-07-29 13:03:00,
2013-07-29 06:09:00,80.7,37.1,29.29,NE,50,3.2,4.0,20,-99.99,,,0.00,201.6,rob ver 1A,2013-07-29 13:09:00,
2013-07-29 06:14:00,80.4,37.4,29.29,NE,45,4.0,4.9,21,-99.99,,,0.00,284.2,rob ver 1A,2013-07-29 13:14:00,
2013-07-29 06:20:00,80.8,37.1,29.29,NE,49,4.2,4.8,20,-99.99,,,0.00,365.3,rob ver 1A,2013-07-29 13:20:00,
2013-07-29 06:28:00,81.7,36.7,29.29,ENE,70,3.5,4.5,19,-99.99,,,0.00,476.8,rob ver 1A,2013-07-29 13:28:00,
2013-07-29 06:34:00,81.8,37.4,29.29,East,90,3.5,4.2,20,-99.99,,,0.00,596.5,rob ver 1A,2013-07-29 13:34:00,
2013-07-29 06:39:00,82.1,37.2,29.29,East,96,4.2,5.2,19,-99.99,,,0.00,697.7,rob ver 1A,2013-07-29 13:39:00,
2013-07-29 07:37:00,88.0,49.5,29.44,ENE,67,13.3,16.3,26,-99.99,,,0.00,1923,rob ver 1B,2013-07-29 14:37:00,
2013-07-29 07:38:00,88.0,49.5,29.44,ENE,69,14.6,17.5,26,-99.99,,,0.00,1944,rob ver 1B,2013-07-29 14:38:00,
2013-07-29 07:39:00,88.0,49.5,29.44,ENE,65,14.6,18.4,26,-99.99,,,0.00,1960,rob ver 1B,2013-07-29 14:39:00,
2013-07-29 07:40:00,88.0,49.5,29.44,ENE,65,13.8,17.4,26,-99.99,,,0.00,1994,rob ver 1B,2013-07-29 14:40:00,
2013-07-29 07:41:00,88.0,49.6,29.44,ENE,65,14.7,19.2,26,-99.99,,,0.00,2020,rob ver 1B,2013-07-29 14:41:00,
2013-07-29 07:42:00,88.2,49.7,29.44,ENE,65,13.3,18.1,26,-99.99,,,0.00,2034,rob ver 1B,2013-07-29 14:42:00,
2013-07-29 07:43:00,88.2,49.8,29.44,ENE,63,12.7,16.9,26,-99.99,,,0.00,2064,rob ver 1B,2013-07-29 14:43:00,
2013-07-29 07:44:00,88.4,49.9,29.44,ENE,61,15.3,20.7,26,-99.99,,,0.00,2090,rob ver 1B,2013-07-29 14:44:00,
2013-07-29 07:45:00,88.4,49.8,29.44,ENE,65,13.9,17.0,26,-99.99,,,0.00,2120,rob ver 1B,2013-07-29 14:45:00,
2013-07-29 07:46:00,88.4,49.8,29.44,ENE,66,12.6,17.6,26,-99.99,,,0.00,2144,rob ver 1B,2013-07-29 14:46:00,
2013-07-29 07:47:00,88.5,49.8,29.44,ENE,62,14.2,17.2,26,-99.99,,,0.00,2171,rob ver 1B,2013-07-29 14:47:00,
2013-07-29 07:48:00,88.5,49.9,29.44,ENE,64,12.3,15.3,26,-99.99,,,0.00,2190,rob ver 1B,2013-07-29 14:48:00,
2013-07-29 07:49:00,88.7,50.0,29.44,ENE,65,12.8,17.5,26,-99.99,,,0.00,2214,rob ver 1B,2013-07-29 14:49:00,
2013-07-29 07:50:00,88.8,50.0,29.47,ENE,63,12.7,16.9,26,-99.99,,,0.00,2242,rob ver 1B,2013-07-29 14:50:00,
2013-07-29 07:51:00,88.8,50.0,29.44,ENE,67,14.1,20.1,26,-99.99,,,0.00,2264,rob ver 1B,2013-07-29 14:51:00,
2013-07-29 07:52:00,88.7,50.0,29.44,ENE,64,14.4,18.4,26,-99.99,,,0.00,2291,rob ver 1B,2013-07-29 14:52:00,
2013-07-29 07:53:00,88.8,50.0,29.44,ENE,61,14.1,17.9,26,-99.99,,,0.00,2308,rob ver 1B,2013-07-29 14:53:00,
2013-07-29 07:54:00,88.9,50.0,29.47,ENE,63,14.1,18.7,26,-99.99,,,0.00,2329,rob ver 1B,2013-07-29 14:54:00,
2013-07-29 07:55:00,88.9,50.0,29.47,ENE,63,14.0,17.9,26,-99.99,,,0.00,2358,rob ver 1B,2013-07-29 14:55:00,
2013-07-29 07:56:00,88.9,49.9,29.44,ENE,65,13.4,19.1,26,-99.99,,,0.00,2386,rob ver 1B,2013-07-29 14:56:00,
2013-07-29 07:57:00,89.0,49.8,29.44,ENE,64,14.4,19.6,25,-99.99,,,0.00,2408,rob ver 1B,2013-07-29 14:57:00,
2013-07-29 07:58:00,89.1,49.7,29.47,ENE,66,13.3,17.2,25,-99.99,,,0.00,2429,rob ver 1B,2013-07-29 14:58:00,
2013-07-29 07:59:00,89.2,49.7,29.47,ENE,67,13.5,19.2,25,-99.99,,,0.00,2436,rob ver 1B,2013-07-29 14:59:00,
2013-07-29 08:00:00,89.3,49.7,29.47,ENE,68,12.6,16.3,25,-99.99,,,0.00,2466,rob ver 1B,2013-07-29 15:00:00,
2013-07-29 08:01:00,89.5,49.7,29.47,ENE,64,12.9,16.6,25,-99.99,,,0.00,2496,rob ver 1B,2013-07-29 15:01:00,
2013-07-29 08:02:00,89.6,49.6,29.47,ENE,57,13.8,17.6,25,-99.99,,,0.00,2520,rob ver 1B,2013-07-29 15:02:00,
2013-07-29 08:03:00,89.7,49.7,29.47,ENE,65,11.9,15.9,25,-99.99,,,0.00,2539,rob ver 1B,2013-07-29 15:03:00,
2013-07-29 08:04:00,89.9,49.5,29.47,ENE,72,13.6,18.5,25,-99.99,,,0.00,2564,rob ver 1B,2013-07-29 15:04:00,
2013-07-29 08:05:00,90.0,49.5,29.47,ENE,67,13.2,17.1,24,-99.99,,,0.00,2586,rob ver 1B,2013-07-29 15:05:00,
2013-07-29 08:06:00,90.1,49.5,29.47,ENE,70,13.5,16.7,24,-99.99,,,0.00,2612,rob ver 1B,2013-07-29 15:06:00,
2013-07-29 08:07:00,90.2,49.4,29.47,ENE,58,12.5,15.6,24,-99.99,,,0.00,2634,rob ver 1B,2013-07-29 15:07:00,
2013-07-29 08:08:00,90.2,49.4,29.47,ENE,59,11.1,13.6,24,-99.99,,,0.00,2649,rob ver 1B,2013-07-29 15:08:00,
2013-07-29 08:09:00,90.5,49.4,29.47,ENE,58,10.9,18.6,24,-99.99,,,0.00,2655,rob ver 1B,2013-07-29 15:09:00,
2013-07-29 08:10:00,90.6,49.2,29.47,ENE,62,14.4,18.5,24,-99.99,,,0.00,2685,rob ver 1B,2013-07-29 15:10:00,
2013-07-29 08:11:00,90.5,49.4,29.47,ENE,69,13.8,17.0,24,-99.99,,,0.00,0,rob ver 1B,2013-07-29 15:11:00,
2013-07-29 08:12:00,90.4,49.5,29.47,ENE,72,13.7,19.1,24,-99.99,,,0.00,0,rob ver 1B,2013-07-29 15:12:00,
2013-07-29 08:13:00,90.5,49.5,29.47,ENE,67,12.4,17.1,24,-99.99,,,0.00,0,rob ver 1B,2013-07-29 15:13:00,
2013-07-29 08:14:00,90.5,49.6,29.47,ENE,65,11.7,15.5,24,-99.99,,,0.00,0,rob ver 1B,2013-07-29 15:14:00,
2013-07-29 08:15:00,90.8,49.7,29.47,ENE,71,10.1,13.7,24,-99.99,,,0.00,0,rob ver 1B,2013-07-29 15:15:00,
2013-07-29 08:16:00,91.0,49.6,29.47,ENE,65,12.4,15.7,24,-99.99,,,0.00,0,rob ver 1B,2013-07-29 15:16:00,
2013-07-29 08:17:00,91.0,49.6,29.47,ENE,64,12.6,15.7,24,-99.99,,,0.00,0,rob ver 1B,2013-07-29 15:17:00,
2013-07-29 08:18:00,91.0,49.6,29.47,ENE,61,12.0,14.8,24,-99.99,,,0.00,0,rob ver 1B,2013-07-29 15:18:00,
2013-07-29 08:19:00,91.1,49.8,29.47,ENE,64,10.5,15.5,24,-99.99,,,0.00,0,rob ver 1B,2013-07-29 15:19:00,
2013-07-29 08:20:00,91.2,49.8,29.47,ENE,68,11.7,15.7,24,-99.99,,,0.00,0,rob ver 1B,2013-07-29 15:20:00,
2013-07-29 08:21:00,91.4,50.0,29.47,ENE,68,9.2,13.5,24,-99.99,,,0.00,0,rob ver 1B,2013-07-29 15:21:00,
2013-07-29 08:22:00,91.5,50.0,29.47,ENE,74,13.0,17.6,24,-99.99,,,0.00,0,rob ver 1B,2013-07-29 15:22:00,
2013-07-29 08:23:00,91.3,50.2,29.47,ENE,68,13.0,17.2,24,-99.99,,,0.00,0,rob ver 1B,2013-07-29 15:23:00,
2013-07-29 08:24:00,91.1,50.1,29.47,ENE,63,12.2,16.2,24,-99.99,,,0.00,2670,rob ver 1B,2013-07-29 15:24:00,
2013-07-29 08:25:00,91.1,49.8,29.47,ENE,71,13.5,18.2,24,-99.99,,,0.00,2585,rob ver 1B,2013-07-29 15:25:00,
2013-07-29 08:26:00,91.0,49.7,29.47,ENE,73,13.7,17.3,24,-99.99,,,0.00,0,rob ver 1B,2013-07-29 15:26:00,
2013-07-29 08:27:00,91.0,49.7,29.47,ENE,73,13.6,18.9,24,-99.99,,,0.00,0,rob ver 1B,2013-07-29 15:27:00,
2013-07-29 08:28:00,91.1,49.5,29.47,ENE,73,15.1,19.0,23,-99.99,,,0.00,0,rob ver 1B,2013-07-29 15:28:00,
2013-07-29 08:29:00,91.1,49.3,29.47,ENE,68,15.6,19.2,23,-99.99,,,0.00,0,rob ver 1B,2013-07-29 15:29:00,
2013-07-29 08:30:00,91.1,49.2,29.47,ENE,62,13.5,16.6,23,-99.99,,,0.00,0,rob ver 1B,2013-07-29 15:30:00,
2013-07-29 08:31:00,91.3,49.3,29.47,ENE,64,12.4,17.0,23,-99.99,,,0.00,0,rob ver 1B,2013-07-29 15:31:00,
2013-07-29 08:32:00,91.5,49.2,29.47,ENE,64,13.1,16.4,23,-99.99,,,0.00,0,rob ver 1B,2013-07-29 15:32:00,
2013-07-29 08:33:00,91.7,49.4,29.47,ENE,69,11.0,15.6,23,-99.99,,,0.00,0,rob ver 1B,2013-07-29 15:33:00,
2013-07-29 08:34:00,92.0,49.3,29.47,ENE,72,13.2,17.9,23,-99.99,,,0.00,0,rob ver 1B,2013-07-29 15:34:00,
2013-07-29 08:35:00,92.0,49.3,29.47,ENE,66,14.5,19.0,23,-99.99,,,0.00,0,rob ver 1B,2013-07-29 15:35:00,
2013-07-29 08:36:00,91.9,49.4,29.47,ENE,68,14.9,19.3,23,-99.99,,,0.00,0,rob ver 1B,2013-07-29 15:36:00,
2013-07-29 08:37:00,92.0,49.4,29.47,ENE,69,11.8,15.9,23,-99.99,,,0.00,0,rob ver 1B,2013-07-29 15:37:00,
2013-07-29 08:38:00,92.2,49.3,29.47,ENE,71,14.3,19.2,23,-99.99,,,0.00,0,rob ver 1B,2013-07-29 15:38:00,
2013-07-29 08:39:00,92.1,49.3,29.47,ENE,75,14.4,18.6,23,-99.99,,,0.00,0,rob ver 1B,2013-07-29 15:39:00,
2013-07-29 08:40:00,92.0,49.4,29.47,ENE,67,14.9,21.1,23,-99.99,,,0.00,0,rob ver 1B,2013-07-29 15:40:00,
2013-07-29 08:41:00,91.9,49.3,29.47,ENE,64,14.2,18.3,23,-99.99,,,0.00,0,rob ver 1B,2013-07-29 15:41:00,
2013-07-29 08:42:00,91.8,49.4,29.47,ENE,61,15.9,21.0,23,-99.99,,,0.00,0,rob ver 1B,2013-07-29 15:42:00,
2013-07-29 08:43:00,91.8,49.4,29.47,ENE,58,14.2,19.8,23,-99.99,,,0.00,0,rob ver 1B,2013-07-29 15:43:00,
2013-07-29 08:44:00,91.8,49.4,29.47,ENE,61,15.1,19.3,23,-99.99,,,0.00,0,rob ver 1B,2013-07-29 15:44:00,
2013-07-29 08:45:00,92.0,49.5,29.47,ENE,71,14.9,19.5,23,-99.99,,,0.00,0,rob ver 1B,2013-07-29 15:45:00,
2013-07-29 08:46:00,92.3,49.5,29.47,ENE,60,13.2,16.1,23,-99.99,,,0.00,0,rob ver 1B,2013-07-29 15:46:00,
2013-07-29 08:47:00,92.4,49.3,29.47,ENE,73,17.5,22.5,23,-99.99,,,0.00,0,rob ver 1B,2013-07-29 15:47:00,
2013-07-29 08:48:00,92.4,49.5,29.47,ENE,73,13.7,18.0,23,-99.99,,,0.00,0,rob ver 1B,2013-07-29 15:48:00,
2013-07-29 08:49:00,92.4,49.5,29.47,ENE,73,14.0,20.9,23,-99.99,,,0.00,0,rob ver 1B,2013-07-29 15:49:00,
2013-07-29 08:50:00,92.5,49.7,29.47,ENE,66,15.8,20.5,23,-99.99,,,0.00,0,rob ver 1B,2013-07-29 15:50:00,
2013-07-29 08:51:00,92.4,49.8,29.47,ENE,67,15.0,20.0,23,-99.99,,,0.00,0,rob ver 1B,2013-07-29 15:51:00,
2013-07-29 08:52:00,92.3,49.7,29.47,ENE,68,15.3,20.1,23,-99.99,,,0.00,0,rob ver 1B,2013-07-29 15:52:00,
2013-07-29 08:53:00,92.4,49.8,29.47,ENE,65,13.4,18.4,23,-99.99,,,0.00,0,rob ver 1B,2013-07-29 15:53:00,
2013-07-29 08:54:00,92.6,49.7,29.47,ENE,70,15.9,20.6,23,-99.99,,,0.00,0,rob ver 1B,2013-07-29 15:54:00,
2013-07-29 08:55:00,92.4,49.7,29.47,ENE,63,15.5,23.2,23,-99.99,,,0.00,0,rob ver 1B,2013-07-29 15:55:00,
2013-07-29 08:56:00,92.3,49.5,29.47,ENE,63,16.2,20.2,23,-99.99,,,0.00,0,rob ver 1B,2013-07-29 15:56:00,
2013-07-29 08:57:00,92.5,49.7,29.47,ENE,66,12.8,18.2,23,-99.99,,,0.00,0,rob ver 1B,2013-07-29 15:57:00,
2013-07-29 08:58:00,92.7,49.8,29.47,ENE,66,13.3,18.1,23,-99.99,,,0.00,0,rob ver 1B,2013-07-29 15:58:00,
2013-07-29 08:59:00,92.7,49.8,29.47,ENE,73,15.9,20.8,23,-99.99,,,0.00,0,rob ver 1B,2013-07-29 15:59:00,
2013-07-29 09:00:00,92.5,49.8,29.47,ENE,73,17.1,20.8,23,-99.99,,,0.00,0,rob ver 1B,2013-07-29 16:00:00,
2013-07-29 09:01:00,92.5,49.7,29.47,ENE,71,15.4,19.9,23,-99.99,,,0.00,0,rob ver 1B,2013-07-29 16:01:00,
2013-07-29 09:02:00,92.6,49.7,29.47,ENE,75,15.3,18.8,23,-99.99,,,0.00,0,rob ver 1B,2013-07-29 16:02:00,
2013-07-29 09:03:00,92.6,49.5,29.47,ENE,70,15.9,20.0,23,-99.99,,,0.00,0,rob ver 1B,2013-07-29 16:03:00,
2013-07-29 09:04:00,92.8,49.6,29.47,ENE,70,14.2,19.6,22,-99.99,,,0.00,0,rob ver 1B,2013-07-29 16:04:00,
2013-07-29 09:05:00,93.0,49.6,29.47,ENE,71,15.8,20.4,22,-99.99,,,0.00,0,rob ver 1B,2013-07-29 16:05:00,
2013-07-29 09:06:00,92.9,49.6,29.47,ENE,73,13.4,19.6,22,-99.99,,,0.00,0,rob ver 1B,2013-07-29 16:06:00,
2013-07-29 09:07:00,93.2,49.5,29.47,ENE,78,15.9,20.0,22,-99.99,,,0.00,0,rob ver 1B,2013-07-29 16:07:00,
2013-07-29 09:08:00,93.1,49.4,29.47,ENE,77,16.1,20.2,22,-99.99,,,0.00,0,rob ver 1B,2013-07-29 16:08:00,
2013-07-29 09:09:00,93.3,49.4,29.47,ENE,67,13.1,18.1,22,-99.99,,,0.00,0,rob ver 1B,2013-07-29 16:09:00,
2013-07-29 09:10:00,93.6,49.3,29.47,ENE,63,12.7,16.4,22,-99.99,,,0.00,0,rob ver 1B,2013-07-29 16:10:00,
2013-07-29 09:11:00,93.7,48.9,29.47,ENE,61,14.9,18.5,21,-99.99,,,0.00,0,rob ver 1B,2013-07-29 16:11:00,
2013-07-29 09:12:00,93.4,49.0,29.47,ENE,61,14.2,18.4,22,-99.99,,,0.00,0,rob ver 1B,2013-07-29 16:12:00,
2013-07-29 09:13:00,93.6,49.2,29.47,ENE,67,11.9,16.3,22,-99.99,,,0.00,0,rob ver 1B,2013-07-29 16:13:00,
2013-07-29 09:14:00,93.7,48.8,29.47,ENE,64,14.5,20.9,21,-99.99,,,0.00,0,rob ver 1B,2013-07-29 16:14:00,
2013-07-29 09:15:00,93.8,49.0,29.47,ENE,67,13.0,17.7,21,-99.99,,,0.00,0,rob ver 1B,2013-07-29 16:15:00,
2013-07-29 09:16:00,93.8,48.9,29.47,ENE,78,14.1,18.1,21,-99.99,,,0.00,0,rob ver 1B,2013-07-29 16:16:00,
2013-07-29 09:17:00,93.9,48.9,29.47,ENE,73,12.8,17.7,21,-99.99,,,0.00,0,rob ver 1B,2013-07-29 16:17:00,
2013-07-29 09:18:00,94.0,49.0,29.47,ENE,65,12.9,16.3,21,-99.99,,,0.00,0,rob ver 1B,2013-07-29 16:18:00,
2013-07-29 09:19:00,94.2,48.9,29.47,ENE,75,14.0,20.2,21,-99.99,,,0.00,0,rob ver 1B,2013-07-29 16:19:00,
2013-07-29 09:20:00,94.2,48.4,29.47,ENE,72,13.1,18.2,20,-99.99,,,0.00,0,rob ver 1B,2013-07-29 16:20:00,
2013-07-29 09:21:00,94.5,48.4,29.47,ENE,78,14.3,19.9,20,-99.99,,,0.00,0,rob ver 1B,2013-07-29 16:21:00,
2013-07-29 09:22:00,94.4,48.0,29.47,East,82,15.1,20.0,20,-99.99,,,0.00,0,rob ver 1B,2013-07-29 16:22:00,
2013-07-29 09:23:00,94.3,48.3,29.47,East,79,14.5,18.1,21,-99.99,,,0.00,0,rob ver 1B,2013-07-29 16:23:00,
2013-07-29 09:24:00,94.5,48.9,29.47,ENE,71,14.0,18.3,21,-99.99,,,0.00,0,rob ver 1B,2013-07-29 16:24:00,
2013-07-29 09:25:00,94.4,48.7,29.47,ENE,63,14.3,19.8,21,-99.99,,,0.00,0,rob ver 1B,2013-07-29 16:25:00,
2013-07-29 09:26:00,94.3,48.5,29.47,ENE,66,15.2,20.5,21,-99.99,,,0.00,0,rob ver 1B,2013-07-29 16:26:00,
2013-07-29 09:27:00,94.3,48.7,29.47,ENE,67,14.8,19.1,21,-99.99,,,0.00,0,rob ver 1B,2013-07-29 16:27:00,
2013-07-29 09:28:00,94.3,48.7,29.47,East,79,16.2,20.0,21,-99.99,,,0.00,0,rob ver 1B,2013-07-29 16:28:00,
2013-07-29 09:29:00,94.3,48.7,29.47,East,79,14.1,18.0,20,-99.99,,,0.00,0,rob ver 1B,2013-07-29 16:29:00,
2013-07-29 09:30:00,94.5,48.5,29.47,East,87,16.0,20.1,21,-99.99,,,0.00,0,rob ver 1B,2013-07-29 16:30:00,
2013-07-29 09:31:00,94.3,48.3,29.47,East,85,14.4,20.0,21,-99.99,,,0.00,0,rob ver 1B,2013-07-29 16:31:00,
2013-07-29 09:32:00,94.3,48.1,29.47,East,79,13.8,17.2,20,-99.99,,,0.00,0,rob ver 1B,2013-07-29 16:32:00,
2013-07-29 09:33:00,94.4,48.5,29.47,ENE,67,13.4,18.6,21,-99.99,,,0.00,0,rob ver 1B,2013-07-29 16:33:00,
2013-07-29 09:34:00,94.5,48.5,29.47,ENE,66,13.2,17.2,20,-99.99,,,0.00,0,rob ver 1B,2013-07-29 16:34:00,
2013-07-29 09:35:00,94.5,48.6,29.47,ENE,72,12.7,17.1,21,-99.99,,,0.00,0,rob ver 1B,2013-07-29 16:35:00,
2013-07-29 09:36:00,94.7,48.7,29.47,ENE,74,13.5,18.4,20,-99.99,,,0.00,0,rob ver 1B,2013-07-29 16:36:00,
2013-07-29 09:37:00,94.7,48.6,29.47,ENE,78,15.1,18.0,21,-99.99,,,0.00,0,rob ver 1B,2013-07-29 16:37:00,
2013-07-29 09:38:00,94.6,49.0,29.47,ENE,69,14.7,17.7,21,-99.99,,,0.00,0,rob ver 1B,2013-07-29 16:38:00,
2013-07-29 09:39:00,94.6,48.6,29.47,ENE,70,14.4,17.5,20,-99.99,,,0.00,0,rob ver 1B,2013-07-29 16:39:00,
2013-07-29 09:40:00,94.5,48.5,29.47,East,80,14.0,16.5,21,-99.99,,,0.00,0,rob ver 1B,2013-07-29 16:40:00,
2013-07-29 09:41:00,94.6,48.1,29.47,East,83,14.5,20.0,20,-99.99,,,0.00,0,rob ver 1B,2013-07-29 16:41:00,
2013-07-29 09:42:00,94.6,47.9,29.47,East,79,14.2,18.7,20,-99.99,,,0.00,0,rob ver 1B,2013-07-29 16:42:00,
2013-07-29 09:43:00,94.6,48.3,29.47,East,79,12.4,16.4,20,-99.99,,,0.00,0,rob ver 1B,2013-07-29 16:43:00,
2013-07-29 09:44:00,94.8,48.4,29.47,ENE,65,13.8,18.4,20,-99.99,,,0.00,0,rob ver 1B,2013-07-29 16:44:00,
2013-07-29 09:45:00,95.0,48.4,29.47,ENE,78,12.7,16.8,20,-99.99,,,0.00,0,rob ver 1B,2013-07-29 16:45:00,
2013-07-29 09:46:00,95.2,47.7,29.47,East,87,16.0,20.4,19,-99.99,,,0.00,0,rob ver 1B,2013-07-29 16:46:00,
2013-07-29 09:47:00,95.2,47.5,29.47,East,79,13.3,17.0,19,-99.99,,,0.00,0,rob ver 1B,2013-07-29 16:47:00,
2013-07-29 09:48:00,95.0,47.8,29.47,ENE,74,12.3,15.9,20,-99.99,,,0.00,0,rob ver 1B,2013-07-29 16:48:00,
2013-07-29 09:49:00,95.2,47.7,29.47,East,88,13.6,17.2,19,-99.99,,,0.00,0,rob ver 1B,2013-07-29 16:49:00,
2013-07-29 09:50:00,95.4,47.2,29.47,East,92,13.1,16.4,19,-99.99,,,0.00,0,rob ver 1B,2013-07-29 16:50:00,
2013-07-29 09:51:00,95.2,47.5,29.47,East,87,15.3,18.1,20,-99.99,,,0.00,0,rob ver 1B,2013-07-29 16:51:00,
2013-07-29 09:52:00,95.1,47.8,29.47,East,83,13.3,17.5,20,-99.99,,,0.00,0,rob ver 1B,2013-07-29 16:52:00,
2013-07-29 09:53:00,95.1,47.5,29.47,ENE,77,11.8,16.8,19,-99.99,,,0.00,0,rob ver 1B,2013-07-29 16:53:00,
2013-07-29 09:54:00,95.2,47.5,29.47,East,84,12.7,18.3,19,-99.99,,,0.00,0,rob ver 1B,2013-07-29 16:54:00,
2013-07-29 09:55:00,95.1,47.6,29.47,East,82,12.3,16.0,20,-99.99,,,0.00,0,rob ver 1B,2013-07-29 16:55:00,
2013-07-29 09:56:00,95.1,47.7,29.47,East,96,14.3,20.0,19,-99.99,,,0.00,0,rob ver 1B,2013-07-29 16:56:00,
2013-07-29 09:57:00,94.9,47.6,29.47,East,88,12.3,18.5,19,-99.99,,,0.00,0,rob ver 1B,2013-07-29 16:57:00,
2013-07-29 09:58:00,94.8,47.4,29.47,East,81,10.6,14.7,19,-99.99,,,0.00,0,rob ver 1B,2013-07-29 16:58:00,
2013-07-29 09:59:00,95.1,47.6,29.47,East,97,15.1,19.3,19,-99.99,,,0.00,0,rob ver 1B,2013-07-29 16:59:00,
2013-07-29 10:00:00,95.0,47.5,29.47,ESE,105,12.9,19.1,19,-99.99,,,0.00,0,rob ver 1B,2013-07-29 17:00:00,
2013-07-29 10:01:00,95.1,47.6,29.47,East,81,10.2,14.3,19,-99.99,,,0.00,0,rob ver 1B,2013-07-29 17:01:00,
2013-07-29 10:02:00,95.3,47.4,29.47,ENE,69,9.3,11.1,19,-99.99,,,0.00,0,rob ver 1B,2013-07-29 17:02:00,
2013-07-29 10:03:00,95.5,47.4,29.47,ENE,78,13.5,17.9,19,-99.99,,,0.00,0,rob ver 1B,2013-07-29 17:03:00,
2013-07-29 10:04:00,95.3,47.4,29.47,East,83,12.0,18.1,19,-99.99,,,0.00,0,rob ver 1B,2013-07-29 17:04:00,
2013-07-29 10:05:00,95.4,47.4,29.47,ENE,67,9.9,13.6,19,-99.99,,,0.00,0,rob ver 1B,2013-07-29 17:05:00,
2013-07-29 10:06:00,95.5,47.4,29.47,East,80,11.7,17.9,19,-99.99,,,0.00,0,rob ver 1B,2013-07-29 17:06:00,
2013-07-29 10:07:00,95.6,47.1,29.47,ENE,76,12.9,17.2,19,-99.99,,,0.00,0,rob ver 1B,2013-07-29 17:07:00,
2013-07-29 10:08:00,95.4,47.3,29.47,ENE,78,11.3,14.7,19,-99.99,,,0.00,0,rob ver 1B,2013-07-29 17:08:00,
2013-07-29 10:09:00,96.1,47.6,29.47,East,91,12.7,18.6,19,-99.99,,,0.00,0,rob ver 1B,2013-07-29 17:09:00,
2013-07-29 10:10:00,96.2,47.6,29.47,East,96,10.4,14.2,19,-99.99,,,0.00,0,rob ver 1B,2013-07-29 17:10:00,
2013-07-29 10:11:00,96.3,47.1,29.47,East,79,10.5,14.1,18,-99.99,,,0.00,0,rob ver 1B,2013-07-29 17:11:00,
2013-07-29 10:12:00,96.1,47.1,29.47,East,85,12.1,14.7,19,-99.99,,,0.00,0,rob ver 1B,2013-07-29 17:12:00,
2013-07-29 10:13:00,96.1,47.3,29.47,East,80,12.6,21.8,19,-99.99,,,0.00,0,rob ver 1B,2013-07-29 17:13:00,
2013-07-29 10:14:00,96.1,47.0,29.47,ENE,73,11.4,17.6,19,-99.99,,,0.00,0,rob ver 1B,2013-07-29 17:14:00,
2013-07-29 10:15:00,96.1,47.3,29.47,East,84,12.0,17.4,18,-99.99,,,0.00,0,rob ver 1B,2013-07-29 17:15:00,
2013-07-29 10:16:00,96.1,47.0,29.47,ENE,70,11.8,19.7,18,-99.99,,,0.00,0,rob ver 1B,2013-07-29 17:16:00,
2013-07-29 10:17:00,96.0,47.0,29.47,ENE,65,11.4,14.7,18,-99.99,,,0.00,0,rob ver 1B,2013-07-29 17:17:00,
2013-07-29 10:18:00,96.1,46.9,29.47,ENE,57,10.2,13.4,18,-99.99,,,0.00,0,rob ver 1B,2013-07-29 17:18:00,
2013-07-29 10:19:00,96.4,47.0,29.47,ENE,63,11.8,15.3,18,-99.99,,,0.00,0,rob ver 1B,2013-07-29 17:19:00,
2013-07-29 10:20:00,96.4,47.3,29.47,ENE,73,12.1,16.4,18,-99.99,,,0.00,0,rob ver 1B,2013-07-29 17:20:00,
2013-07-29 10:21:00,96.9,47.2,29.47,East,97,14.3,18.8,18,-99.99,,,0.00,0,rob ver 1B,2013-07-29 17:21:00,
2013-07-29 10:22:00,96.6,47.2,29.47,East,100,12.0,14.6,18,-99.99,,,0.00,0,rob ver 1B,2013-07-29 17:22:00,
2013-07-29 10:23:00,96.7,47.3,29.47,ESE,113,10.7,13.7,18,-99.99,,,0.00,0,rob ver 1B,2013-07-29 17:23:00,
2013-07-29 10:24:00,96.8,47.3,29.47,ESE,119,8.2,10.5,18,-99.99,,,0.00,0,rob ver 1B,2013-07-29 17:24:00,
2013-07-29 10:25:00,96.7,47.3,29.47,East,84,10.5,13.3,18,-99.99,,,0.00,0,rob ver 1B,2013-07-29 17:25:00,
2013-07-29 10:26:00,96.6,47.2,29.47,East,87,15.7,18.3,18,-99.99,,,0.00,0,rob ver 1B,2013-07-29 17:26:00,
2013-07-29 10:27:00,96.6,47.2,29.47,East,87,14.4,18.5,18,-99.99,,,0.00,0,rob ver 1B,2013-07-29 17:27:00,
2013-07-29 10:28:00,96.6,47.1,29.47,East,86,14.1,18.5,18,-99.99,,,0.00,0,rob ver 1B,2013-07-29 17:28:00,
2013-07-29 10:29:00,96.6,47.2,29.47,East,84,12.7,15.7,18,-99.99,,,0.00,0,rob ver 1B,2013-07-29 17:29:00,
2013-07-29 10:30:00,96.5,47.3,29.47,ENE,75,9.4,13.6,18,-99.99,,,0.00,0,rob ver 1B,2013-07-29 17:30:00,
2013-07-29 10:31:00,96.3,47.4,29.47,East,85,7.3,11.4,19,-99.99,,,0.00,0,rob ver 1B,2013-07-29 17:31:00,
2013-07-29 10:32:00,96.7,47.3,29.47,East,84,10.1,14.5,18,-99.99,,,0.00,0,rob ver 1B,2013-07-29 17:32:00,
2013-07-29 10:33:00,96.4,47.1,29.47,East,84,8.6,11.7,18,-99.99,,,0.00,0,rob ver 1B,2013-07-29 17:33:00,
2013-07-29 10:34:00,96.8,47.3,29.47,East,88,9.0,14.2,18,-99.99,,,0.00,0,rob ver 1B,2013-07-29 17:34:00,
2013-07-29 10:35:00,97.0,47.4,29.47,East,94,14.7,18.1,18,-99.99,,,0.00,0,rob ver 1B,2013-07-29 17:35:00,
2013-07-29 10:36:00,96.9,47.4,29.47,East,98,12.4,15.7,19,-99.99,,,0.00,0,rob ver 1B,2013-07-29 17:36:00,
2013-07-29 10:37:00,96.3,47.5,29.47,ESE,112,9.3,11.1,19,-99.99,,,0.00,0,rob ver 1B,2013-07-29 17:37:00,
2013-07-29 10:38:00,96.3,47.4,29.47,East,101,8.6,11.2,19,-99.99,,,0.00,0,rob ver 1B,2013-07-29 17:38:00,
2013-07-29 10:39:00,96.6,47.3,29.47,East,84,8.1,12.6,18,-99.99,,,0.00,0,rob ver 1B,2013-07-29 17:39:00,
2013-07-29 10:40:00,96.7,47.2,29.47,East,94,9.0,11.5,18,-99.99,,,0.00,0,rob ver 1B,2013-07-29 17:40:00,
2013-07-29 10:41:00,96.8,47.4,29.47,ESE,109,11.8,16.3,18,-99.99,,,0.00,0,rob ver 1B,2013-07-29 17:41:00,
2013-07-29 10:42:00,97.0,47.3,29.47,ESE,111,14.5,17.1,18,-99.99,,,0.00,0,rob ver 1B,2013-07-29 17:42:00,
2013-07-29 10:43:00,96.7,47.2,29.47,East,96,8.2,11.6,18,-99.99,,,0.00,0,rob ver 1B,2013-07-29 17:43:00,
2013-07-29 10:44:00,96.4,47.4,29.47,ENE,78,10.6,19.2,19,-99.99,,,0.00,0,rob ver 1B,2013-07-29 17:44:00,
2013-07-29 10:45:00,96.5,47.5,29.47,East,82,13.3,17.6,18,-99.99,,,0.00,0,rob ver 1B,2013-07-29 17:45:00,
2013-07-29 10:46:00,96.5,47.5,29.47,East,91,11.5,13.1,19,-99.99,,,0.00,0,rob ver 1B,2013-07-29 17:46:00,
2013-07-29 10:47:00,96.7,47.6,29.47,ESE,112,12.2,16.3,18,-99.99,,,0.00,0,rob ver 1B,2013-07-29 17:47:00,
2013-07-29 10:48:00,96.6,47.6,29.47,ESE,109,11.0,14.7,19,-99.99,,,0.00,0,rob ver 1B,2013-07-29 17:48:00,
2013-07-29 10:49:00,96.7,47.6,29.47,East,92,9.7,12.8,18,-99.99,,,0.00,0,rob ver 1B,2013-07-29 17:49:00,
2013-07-29 10:50:00,96.9,47.5,29.47,East,79,8.2,11.0,18,-99.99,,,0.00,0,rob ver 1B,2013-07-29 17:50:00,
2013-07-29 10:51:00,96.9,47.5,29.47,ESE,105,7.6,9.8,18,-99.99,,,0.00,0,rob ver 1B,2013-07-29 17:51:00,
2013-07-29 10:52:00,97.1,47.5,29.47,ESE,120,8.7,10.3,18,-99.99,,,0.00,0,rob ver 1B,2013-07-29 17:52:00,
2013-07-29 10:53:00,97.4,47.6,29.47,ESE,109,7.6,12.8,18,-99.99,,,0.00,0,rob ver 1B,2013-07-29 17:53:00,
2013-07-29 10:54:00,97.4,47.8,29.47,East,88,13.5,18.3,18,-99.99,,,0.00,0,rob ver 1B,2013-07-29 17:54:00,
2013-07-29 10:55:00,97.6,47.7,29.47,East,79,15.1,19.6,18,-99.99,,,0.00,0,rob ver 1B,2013-07-29 17:55:00,
2013-07-29 10:56:00,97.5,47.8,29.47,East,99,12.4,14.8,18,-99.99,,,0.00,0,rob ver 1B,2013-07-29 17:56:00,
2013-07-29 10:57:00,97.6,47.9,29.47,East,91,13.9,18.9,18,-99.99,,,0.00,0,rob ver 1B,2013-07-29 17:57:00,
2013-07-29 10:58:00,97.6,47.6,29.47,East,90,12.6,17.6,18,-99.99,,,0.00,0,rob ver 1B,2013-07-29 17:58:00,
2013-07-29 10:59:00,97.5,47.7,29.47,East,88,10.4,14.5,18,-99.99,,,0.00,0,rob ver 1B,2013-07-29 17:59:00,
2013-07-29 11:00:00,97.5,47.8,29.47,ESE,116,9.6,12.9,18,-99.99,,,0.00,0,rob ver 1B,2013-07-29 18:00:00,
2013-07-29 11:01:00,97.6,47.8,29.47,ESE,114,9.7,13.0,18,-99.99,,,0.00,0,rob ver 1B,2013-07-29 18:01:00,
2013-07-29 11:02:00,97.3,47.9,29.47,East,92,8.6,11.2,18,-99.99,,,0.00,0,rob ver 1B,2013-07-29 18:02:00,
2013-07-29 11:03:00,97.8,48.0,29.47,ENE,68,12.5,15.9,18,-99.99,,,0.00,0,rob ver 1B,2013-07-29 18:03:00,
2013-07-29 11:04:00,97.8,47.9,29.47,East,79,9.3,12.5,18,-99.99,,,0.00,0,rob ver 1B,2013-07-29 18:04:00,
2013-07-29 11:05:00,97.9,48.5,29.47,ENE,74,9.5,16.4,18,-99.99,,,0.00,0,rob ver 1B,2013-07-29 18:05:00,
2013-07-29 11:06:00,98.1,48.5,29.47,ENE,72,13.9,18.8,18,-99.99,,,0.00,0,rob ver 1B,2013-07-29 18:06:00,
2013-07-29 11:07:00,98.5,48.1,29.47,ESE,103,16.2,20.7,17,-99.99,,,0.00,0,rob ver 1B,2013-07-29 18:07:00,
2013-07-29 11:08:00,98.7,48.0,29.47,ESE,118,14.6,20.6,18,-99.99,,,0.00,0,rob ver 1B,2013-07-29 18:08:00,
2013-07-29 11:09:00,98.8,48.0,29.47,SE,134,14.4,18.7,18,-99.99,,,0.00,0,rob ver 1B,2013-07-29 18:09:00,
2013-07-29 11:10:00,98.3,48.4,29.47,SSE,159,10.5,14.6,18,-99.99,,,0.00,0,rob ver 1B,2013-07-29 18:10:00,
2013-07-29 11:11:00,98.1,48.6,29.47,SE,138,6.9,10.7,18,-99.99,,,0.00,0,rob ver 1B,2013-07-29 18:11:00,
2013-07-29 11:12:00,98.1,48.5,29.47,ESE,122,6.0,8.1,18,-99.99,,,0.00,0,rob ver 1B,2013-07-29 18:12:00,
2013-07-29 11:13:00,98.2,48.8,29.47,ESE,106,11.1,14.9,18,-99.99,,,0.00,0,rob ver 1B,2013-07-29 18:13:00,
2013-07-29 11:14:00,98.2,48.8,29.47,East,94,13.5,16.5,18,-99.99,,,0.00,0,rob ver 1B,2013-07-29 18:14:00,
2013-07-29 11:15:00,97.9,48.6,29.47,East,86,13.1,17.6,19,-99.99,,,0.00,0,rob ver 1B,2013-07-29 18:15:00,
2013-07-29 11:16:00,97.8,48.7,29.47,East,90,10.9,14.7,18,-99.99,,,0.00,0,rob ver 1B,2013-07-29 18:16:00,
2013-07-29 11:17:00,97.7,48.5,29.47,ENE,78,9.8,13.0,18,-99.99,,,0.00,0,rob ver 1B,2013-07-29 18:17:00,
2013-07-29 11:18:00,97.9,48.6,29.47,East,99,11.5,16.5,18,-99.99,,,0.00,0,rob ver 1B,2013-07-29 18:18:00,
2013-07-29 11:19:00,98.0,48.7,29.47,SE,131,8.5,12.4,18,-99.99,,,0.00,0,rob ver 1B,2013-07-29 18:19:00,
2013-07-29 11:20:00,97.9,48.8,29.47,ESE,119,7.2,9.6,19,-99.99,,,0.00,0,rob ver 1B,2013-07-29 18:20:00,
2013-07-29 11:21:00,98.0,48.7,29.47,SE,126,8.5,11.5,19,-99.99,,,0.00,0,rob ver 1B,2013-07-29 18:21:00,
2013-07-29 11:22:00,98.0,48.4,29.47,SSE,149,9.8,14.3,18,-99.99,,,0.00,0,rob ver 1B,2013-07-29 18:22:00,
2013-07-29 11:23:00,97.9,48.5,29.47,SE,145,10.4,12.9,18,-99.99,,,0.00,0,rob ver 1B,2013-07-29 18:23:00,
2013-07-29 11:24:00,97.8,48.5,29.47,SSE,154,6.8,10.1,19,-99.99,,,0.00,0,rob ver 1B,2013-07-29 18:24:00,
2013-07-29 11:25:00,97.8,48.7,29.47,ESE,117,8.0,11.4,19,-99.99,,,0.00,0,rob ver 1B,2013-07-29 18:25:00,
2013-07-29 11:26:00,97.8,48.9,29.47,ESE,102,8.4,11.6,19,-99.99,,,0.00,0,rob ver 1B,2013-07-29 18:26:00,
2013-07-29 11:27:00,97.7,49.0,29.47,SE,130,6.5,10.2,19,-99.99,,,0.00,0,rob ver 1B,2013-07-29 18:27:00,
2013-07-29 11:28:00,97.7,49.3,29.47,ESE,114,8.9,15.7,19,-99.99,,,0.00,0,rob ver 1B,2013-07-29 18:28:00,
2013-07-29 11:29:00,97.6,49.2,29.47,ESE,104,6.3,14.1,19,-99.99,,,0.00,0,rob ver 1B,2013-07-29 18:29:00,
2013-07-29 11:30:00,97.8,49.1,29.47,SE,134,2.8,5.9,19,-99.99,,,0.00,0,rob ver 1B,2013-07-29 18:30:00,
2013-07-29 11:31:00,98.2,49.3,29.47,SE,140,4.0,7.2,19,-99.99,,,0.00,0,rob ver 1B,2013-07-29 18:31:00,
2013-07-29 11:32:00,98.7,48.3,29.47,SE,140,11.9,14.7,17,-99.99,,,0.00,0,rob ver 1B,2013-07-29 18:32:00,
2013-07-29 11:33:00,98.8,47.9,29.47,ESE,118,9.9,13.2,18,-99.99,,,0.00,0,rob ver 1B,2013-07-29 18:33:00,
2013-07-29 11:34:00,98.7,48.2,29.47,SSE,153,9.9,15.0,18,-99.99,,,0.00,0,rob ver 1B,2013-07-29 18:34:00,
2013-07-29 11:35:00,98.7,48.2,29.47,SSE,156,8.1,10.9,18,-99.99,,,0.00,0,rob ver 1B,2013-07-29 18:35:00,
2013-07-29 11:36:00,98.7,48.0,29.47,South,173,7.2,10.9,18,-99.99,,,0.00,0,rob ver 1B,2013-07-29 18:36:00,
2013-07-29 11:37:00,98.8,48.1,29.47,SSE,165,6.9,11.1,18,-99.99,,,0.00,0,rob ver 1B,2013-07-29 18:37:00,
2013-07-29 11:38:00,98.8,48.2,29.47,SSE,153,7.8,10.3,17,-99.99,,,0.00,0,rob ver 1B,2013-07-29 18:38:00,
2013-07-29 11:39:00,99.3,48.0,29.47,South,176,9.1,12.1,17,-99.99,,,0.00,0,rob ver 1B,2013-07-29 18:39:00,
2013-07-29 11:40:00,99.3,48.1,29.47,SSE,158,9.4,12.0,17,-99.99,,,0.00,0,rob ver 1B,2013-07-29 18:40:00,
2013-07-29 11:41:00,99.2,48.4,29.47,SE,140,9.8,15.2,18,-99.99,,,0.00,0,rob ver 1B,2013-07-29 18:41:00,
2013-07-29 11:42:00,99.4,48.4,29.47,SE,135,9.4,11.5,18,-99.99,,,0.00,0,rob ver 1B,2013-07-29 18:42:00,
2013-07-29 11:43:00,99.5,48.2,29.47,ESE,102,11.7,16.2,17,-99.99,,,0.00,0,rob ver 1B,2013-07-29 18:43:00,
2013-07-29 11:44:00,99.3,48.2,29.47,East,94,10.8,13.5,18,-99.99,,,0.00,0,rob ver 1B,2013-07-29 18:44:00,
2013-07-29 11:45:00,99.2,48.5,29.47,East,95,12.8,16.3,18,-99.99,,,0.00,0,rob ver 1B,2013-07-29 18:45:00,
2013-07-29 11:46:00,99.2,48.4,29.47,East,93,13.1,15.8,18,-99.99,,,0.00,0,rob ver 1B,2013-07-29 18:46:00,
2013-07-29 11:47:00,99.0,48.3,29.47,ESE,107,12.9,15.7,18,-99.99,,,0.00,0,rob ver 1B,2013-07-29 18:47:00,
2013-07-29 11:48:00,98.7,48.5,29.47,ESE,110,8.2,10.5,18,-99.99,,,0.00,0,rob ver 1B,2013-07-29 18:48:00,
2013-07-29 11:49:00,99.0,48.2,29.47,ESE,104,7.1,9.9,17,-99.99,,,0.00,0,rob ver 1B,2013-07-29 18:49:00,
2013-07-29 11:50:00,99.1,47.9,29.47,ESE,102,8.1,9.9,17,-99.99,,,0.00,0,rob ver 1B,2013-07-29 18:50:00,
2013-07-29 11:51:00,99.1,48.1,29.47,East,95,5.6,8.1,18,-99.99,,,0.00,0,rob ver 1B,2013-07-29 18:51:00,
2013-07-29 11:52:00,99.3,48.2,29.47,ENE,73,5.5,7.8,17,-99.99,,,0.00,0,rob ver 1B,2013-07-29 18:52:00,
2013-07-29 11:53:00,99.5,48.0,29.47,East,80,4.9,6.4,17,-99.99,,,0.00,0,rob ver 1B,2013-07-29 18:53:00,
2013-07-29 11:54:00,99.5,48.1,29.47,East,84,5.7,7.8,18,-99.99,,,0.00,0,rob ver 1B,2013-07-29 18:54:00,
2013-07-29 11:55:00,99.4,48.6,29.47,SE,137,7.0,10.3,18,-99.99,,,0.00,0,rob ver 1B,2013-07-29 18:55:00,
2013-07-29 11:56:00,99.3,48.8,29.47,SSE,168,4.9,7.1,18,-99.99,,,0.00,0,rob ver 1B,2013-07-29 18:56:00,
2013-07-29 11:57:00,99.5,48.7,29.47,SE,129,3.1,4.3,18,-99.99,,,0.00,0,rob ver 1B,2013-07-29 18:57:00,
2013-07-29 11:58:00,99.5,48.4,29.47,East,98,3.9,7.6,18,-99.99,,,0.00,0,rob ver 1B,2013-07-29 18:58:00,
2013-07-29 11:59:00,99.8,48.4,29.47,East,92,12.1,16.2,17,-99.99,,,0.00,0,rob ver 1B,2013-07-29 18:59:00,
2013-07-29 12:00:00,99.4,48.3,29.47,ESE,111,9.1,12.8,17,-99.99,,,0.00,0,rob ver 1B,2013-07-29 19:00:00,
2013-07-29 12:01:00,99.3,48.5,29.47,SE,127,5.7,9.4,18,-99.99,,,0.00,0,rob ver 1B,2013-07-29 19:01:00,
2013-07-29 12:02:00,99.8,48.4,29.47,ENE,70,11.7,17.9,17,-99.99,,,0.00,0,rob ver 1B,2013-07-29 19:02:00,
2013-07-29 12:03:00,99.9,48.0,29.44,ENE,69,13.4,18.1,17,-99.99,,,0.00,0,rob ver 1B,2013-07-29 19:03:00,
2013-07-29 12:04:00,99.6,48.1,29.47,ENE,71,10.0,13.8,17,-99.99,,,0.00,0,rob ver 1B,2013-07-29 19:04:00,
2013-07-29 12:05:00,99.8,48.0,29.47,ENE,65,8.6,13.8,17,-99.99,,,0.00,0,rob ver 1B,2013-07-29 19:05:00,
2013-07-29 12:06:00,100.1,48.1,29.47,NE,55,10.5,14.7,17,-99.99,,,0.00,0,rob ver 1B,2013-07-29 19:06:00,
2013-07-29 12:07:00,99.7,48.1,29.47,NE,49,8.7,11.4,17,-99.99,,,0.00,0,rob ver 1B,2013-07-29 19:07:00,
2013-07-29 12:08:00,99.8,48.2,29.47,ENE,65,8.0,13.9,17,-99.99,,,0.00,0,rob ver 1B,2013-07-29 19:08:00,
2013-07-29 12:09:00,99.8,48.4,29.47,East,83,8.2,11.7,17,-99.99,,,0.00,0,rob ver 1B,2013-07-29 19:09:00,
2013-07-29 12:10:00,99.8,48.5,29.47,ENE,73,8.1,11.8,17,-99.99,,,0.00,0,rob ver 1B,2013-07-29 19:10:00,
2013-07-29 12:11:00,99.9,48.4,29.47,East,79,10.8,16.7,17,-99.99,,,0.00,0,rob ver 1B,2013-07-29 19:11:00,
2013-07-29 12:12:00,100.0,48.3,29.44,East,83,12.2,18.5,17,-99.99,,,0.00,0,rob ver 1B,2013-07-29 19:12:00,
2013-07-29 12:13:00,99.9,48.5,29.47,East,93,7.3,11.3,17,-99.99,,,0.00,0,rob ver 1B,2013-07-29 19:13:00,
2013-07-29 12:14:00,100.2,48.3,29.47,ESE,117,12.9,17.9,17,-99.99,,,0.00,0,rob ver 1B,2013-07-29 19:14:00,
2013-07-29 12:15:00,100.0,48.2,29.47,SE,132,11.6,16.3,17,-99.99,,,0.00,0,rob ver 1B,2013-07-29 19:15:00,
2013-07-29 12:16:00,99.6,48.2,29.47,East,88,7.7,14.2,17,-99.99,,,0.00,0,rob ver 1B,2013-07-29 19:16:00,
2013-07-29 12:17:00,99.5,48.3,29.47,SE,136,5.6,11.0,17,-99.99,,,0.00,0,rob ver 1B,2013-07-29 19:17:00,
2013-07-29 12:18:00,99.9,48.4,29.44,SSE,167,6.6,10.2,17,-99.99,,,0.00,0,rob ver 1B,2013-07-29 19:18:00,
2013-07-29 12:19:00,100.1,48.7,29.47,SSE,149,5.0,6.6,17,-99.99,,,0.00,0,rob ver 1B,2013-07-29 19:19:00,
2013-07-29 12:20:00,100.2,48.5,29.47,SE,133,4.1,6.0,17,-99.99,,,0.00,0,rob ver 1B,2013-07-29 19:20:00,
2013-07-29 12:21:00,100.3,48.6,29.47,SE,129,8.3,10.9,17,-99.99,,,0.00,0,rob ver 1B,2013-07-29 19:21:00,
2013-07-29 12:22:00,100.4,48.7,29.44,SE,132,6.3,9.7,17,-99.99,,,0.00,0,rob ver 1B,2013-07-29 19:22:00,
2013-07-29 12:23:00,100.5,48.6,29.44,SE,139,8.7,11.3,17,-99.99,,,0.00,0,rob ver 1B,2013-07-29 19:23:00,
2013-07-29 12:24:00,100.3,48.3,29.44,ESE,121,6.7,10.2,17,-99.99,,,0.00,0,rob ver 1B,2013-07-29 19:24:00,
2013-07-29 12:25:00,100.1,48.3,29.44,SE,124,8.0,11.0,17,-99.99,,,0.00,0,rob ver 1B,2013-07-29 19:25:00,
2013-07-29 12:26:00,100.1,48.4,29.44,ESE,117,8.1,10.4,17,-99.99,,,0.00,0,rob ver 1B,2013-07-29 19:26:00,
2013-07-29 12:27:00,100.1,48.2,29.44,SE,132,6.4,12.0,17,-99.99,,,0.00,0,rob ver 1B,2013-07-29 19:27:00,
2013-07-29 12:28:00,100.1,48.4,29.44,SE,137,4.8,7.0,17,-99.99,,,0.00,0,rob ver 1B,2013-07-29 19:28:00,
2013-07-29 12:29:00,100.1,48.3,29.44,NNE,26,1.8,3.4,17,-99.99,,,0.00,0,rob ver 1B,2013-07-29 19:29:00,
2013-07-29 12:30:00,100.3,48.3,29.44,ESE,116,3.3,6.6,17,-99.99,,,0.00,0,rob ver 1B,2013-07-29 19:30:00,
2013-07-29 12:31:00,100.7,48.3,29.44,SSE,163,2.6,5.8,17,-99.99,,,0.00,0,rob ver 1B,2013-07-29 19:31:00,
2013-07-29 12:32:00,101.1,48.4,29.44,NE,47,2.3,4.6,16,-99.99,,,0.00,0,rob ver 1B,2013-07-29 19:32:00,
2013-07-29 12:33:00,101.5,47.9,29.44,South,174,3.8,8.6,16,-99.99,,,0.00,0,rob ver 1B,2013-07-29 19:33:00,
2013-07-29 12:34:00,101.5,47.9,29.44,SSE,156,10.4,13.4,16,-99.99,,,0.00,0,rob ver 1B,2013-07-29 19:34:00,
2013-07-29 12:35:00,101.0,48.1,29.44,South,176,7.3,12.4,16,-99.99,,,0.00,0,rob ver 1B,2013-07-29 19:35:00,
2013-07-29 12:36:00,100.9,48.1,29.44,South,185,7.6,9.5,16,-99.99,,,0.00,0,rob ver 1B,2013-07-29 19:36:00,
2013-07-29 12:37:00,101.1,47.8,29.44,South,174,10.6,14.7,16,-99.99,,,0.00,0,rob ver 1B,2013-07-29 19:37:00,
2013-07-29 12:38:00,101.2,47.6,29.44,SE,146,9.1,13.7,16,-99.99,,,0.00,0,rob ver 1B,2013-07-29 19:38:00,
2013-07-29 12:39:00,100.9,48.1,29.44,SE,140,5.3,7.6,17,-99.99,,,0.00,0,rob ver 1B,2013-07-29 19:39:00,
2013-07-29 12:40:00,100.8,48.1,29.44,ESE,118,5.0,7.8,17,-99.99,,,0.00,0,rob ver 1B,2013-07-29 19:40:00,
2013-07-29 12:41:00,100.9,47.7,29.44,SE,128,6.0,10.1,16,-99.99,,,0.00,0,rob ver 1B,2013-07-29 19:41:00,
2013-07-29 12:42:00,101.2,45.9,29.44,ESE,123,10.3,15.7,15,-99.99,,,0.00,0,rob ver 1B,2013-07-29 19:42:00,
2013-07-29 12:43:00,101.2,45.8,29.44,ESE,121,7.5,11.4,15,-99.99,,,0.00,0,rob ver 1B,2013-07-29 19:43:00,
2013-07-29 12:44:00,100.9,46.1,29.44,ESE,113,4.0,8.1,15,-99.99,,,0.00,0,rob ver 1B,2013-07-29 19:44:00,
2013-07-29 12:45:00,101.0,45.6,29.44,South,182,6.4,9.7,15,-99.99,,,0.00,0,rob ver 1B,2013-07-29 19:45:00,
2013-07-29 12:46:00,101.1,45.2,29.44,SSW,199,7.4,9.1,15,-99.99,,,0.00,0,rob ver 1B,2013-07-29 19:46:00,
2013-07-29 12:47:00,101.3,45.2,29.44,South,183,7.2,11.5,14,-99.99,,,0.00,0,rob ver 1B,2013-07-29 19:47:00,
2013-07-29 12:48:00,101.4,44.8,29.44,SE,124,7.8,10.1,14,-99.99,,,0.00,0,rob ver 1B,2013-07-29 19:48:00,
2013-07-29 12:49:00,101.4,44.7,29.44,ESE,107,10.7,15.1,14,-99.99,,,0.00,0,rob ver 1B,2013-07-29 19:49:00,
2013-07-29 12:50:00,101.3,44.7,29.44,East,93,7.9,13.5,14,-99.99,,,0.00,0,rob ver 1B,2013-07-29 19:50:00,
2013-07-29 12:51:00,101.2,44.7,29.44,ESE,112,6.3,10.0,14,-99.99,,,0.00,0,rob ver 1B,2013-07-29 19:51:00,
2013-07-29 12:52:00,101.7,44.9,29.44,SE,138,8.2,12.1,14,-99.99,,,0.00,0,rob ver 1B,2013-07-29 19:52:00,
2013-07-29 12:53:00,102.0,44.9,29.44,SSE,152,9.8,14.5,14,-99.99,,,0.00,0,rob ver 1B,2013-07-29 19:53:00,
2013-07-29 12:54:00,101.8,45.0,29.44,SW,217,4.9,8.4,14,-99.99,,,0.00,0,rob ver 1B,2013-07-29 19:54:00,
2013-07-29 12:55:00,101.9,45.0,29.44,SSW,194,2.9,6.3,14,-99.99,,,0.00,0,rob ver 1B,2013-07-29 19:55:00,
2013-07-29 12:56:00,102.1,45.0,29.44,SSW,206,5.1,8.4,14,-99.99,,,0.00,0,rob ver 1B,2013-07-29 19:56:00,
2013-07-29 12:57:00,102.1,45.1,29.44,SSW,197,6.3,7.8,14,-99.99,,,0.00,0,rob ver 1B,2013-07-29 19:57:00,
2013-07-29 12:58:00,101.9,45.0,29.44,WSW,253,3.4,5.8,14,-99.99,,,0.00,0,rob ver 1B,2013-07-29 19:58:00,
2013-07-29 12:59:00,101.7,44.9,29.44,NNE,21,3.2,5.8,14,-99.99,,,0.00,0,rob ver 1B,2013-07-29 19:59:00,
2013-07-29 13:00:00,102.0,44.5,29.44,East,90,8.1,11.2,14,-99.99,,,0.00,0,rob ver 1B,2013-07-29 20:00:00,
2013-07-29 13:01:00,102.1,44.4,29.44,East,88,7.0,9.0,14,-99.99,,,0.00,0,rob ver 1B,2013-07-29 20:01:00,
2013-07-29 13:02:00,102.1,44.4,29.44,SE,134,3.7,6.7,14,-99.99,,,0.00,0,rob ver 1B,2013-07-29 20:02:00,
2013-07-29 13:03:00,102.5,44.6,29.44,South,174,6.6,20.9,13,-99.99,,,0.00,0,rob ver 1B,2013-07-29 20:03:00,
2013-07-29 13:04:00,102.8,44.2,29.44,ESE,117,10.1,14.9,13,-99.99,,,0.00,0,rob ver 1B,2013-07-29 20:04:00,
2013-07-29 13:05:00,102.8,43.7,29.44,SSE,158,12.1,15.7,13,-99.99,,,0.00,0,rob ver 1B,2013-07-29 20:05:00,
2013-07-29 13:06:00,102.5,43.9,29.44,SSE,165,10.2,17.2,13,-99.99,,,0.00,0,rob ver 1B,2013-07-29 20:06:00,
2013-07-29 13:07:00,102.3,43.9,29.44,SSE,148,7.8,12.8,14,-99.99,,,0.00,0,rob ver 1B,2013-07-29 20:07:00,
2013-07-29 13:08:00,102.6,44.0,29.44,SSE,156,9.4,13.7,13,-99.99,,,0.00,0,rob ver 1B,2013-07-29 20:08:00,
2013-07-29 13:09:00,102.5,44.1,29.44,SSE,163,7.1,10.6,13,-99.99,,,0.00,0,rob ver 1B,2013-07-29 20:09:00,
2013-07-29 13:10:00,102.8,44.1,29.44,South,172,8.8,12.8,13,-99.99,,,0.00,0,rob ver 1B,2013-07-29 20:10:00,
2013-07-29 13:11:00,103.2,44.2,29.44,SSE,160,13.4,17.7,13,-99.99,,,0.00,0,rob ver 1B,2013-07-29 20:11:00,
2013-07-29 13:12:00,103.3,44.3,29.44,SSE,153,13.1,16.3,13,-99.99,,,0.00,0,rob ver 1B,2013-07-29 20:12:00,
2013-07-29 13:13:00,103.4,44.3,29.44,SSE,162,12.0,16.8,13,-99.99,,,0.00,0,rob ver 1B,2013-07-29 20:13:00,
2013-07-29 13:14:00,103.2,44.2,29.44,SSE,165,8.6,10.2,13,-99.99,,,0.00,0,rob ver 1B,2013-07-29 20:14:00,
2013-07-29 13:15:00,102.8,44.1,29.44,SSE,152,7.7,10.9,13,-99.99,,,0.00,0,rob ver 1B,2013-07-29 20:15:00,
2013-07-29 13:16:00,102.8,43.7,29.44,SE,146,11.4,15.1,13,-99.99,,,0.00,0,rob ver 1B,2013-07-29 20:16:00,
2013-07-29 13:17:00,102.9,43.6,29.44,SSE,162,14.5,21.2,13,-99.99,,,0.00,0,rob ver 1B,2013-07-29 20:17:00,
2013-07-29 13:18:00,103.0,43.6,29.44,South,169,14.2,17.1,13,-99.99,,,0.00,0,rob ver 1B,2013-07-29 20:18:00,
2013-07-29 13:19:00,103.2,43.6,29.41,South,170,13.7,17.7,13,-99.99,,,0.00,0,rob ver 1B,2013-07-29 20:19:00,
2013-07-29 13:20:00,103.3,43.8,29.44,South,171,12.2,17.0,13,-99.99,,,0.00,0,rob ver 1B,2013-07-29 20:20:00,
2013-07-29 13:21:00,103.4,43.7,29.44,SSE,159,14.7,18.8,13,-99.99,,,0.00,0,rob ver 1B,2013-07-29 20:21:00,
2013-07-29 13:22:00,102.9,43.6,29.44,SSE,153,9.5,13.7,13,-99.99,,,0.00,0,rob ver 1B,2013-07-29 20:22:00,
2013-07-29 13:23:00,103.0,43.7,29.41,SSE,167,12.8,15.4,13,-99.99,,,0.00,0,rob ver 1B,2013-07-29 20:23:00,
2013-07-29 13:24:00,103.0,43.7,29.41,SSE,168,11.9,15.7,13,-99.99,,,0.00,0,rob ver 1B,2013-07-29 20:24:00,
2013-07-29 13:25:00,103.2,43.6,29.41,South,176,11.6,13.9,13,-99.99,,,0.00,0,rob ver 1B,2013-07-29 20:25:00,
2013-07-29 13:26:00,103.4,43.4,29.44,South,189,10.7,13.8,13,-99.99,,,0.00,0,rob ver 1B,2013-07-29 20:26:00,
2013-07-29 13:27:00,103.4,43.7,29.41,South,188,12.9,15.7,13,-99.99,,,0.00,0,rob ver 1B,2013-07-29 20:27:00,
2013-07-29 13:28:00,103.4,43.6,29.41,South,187,12.9,16.6,13,-99.99,,,0.00,0,rob ver 1B,2013-07-29 20:28:00,
2013-07-29 13:29:00,103.7,43.7,29.41,South,181,12.8,17.3,13,-99.99,,,0.00,0,rob ver 1B,2013-07-29 20:29:00,
2013-07-29 13:30:00,104.1,43.7,29.41,SSE,155,16.3,20.4,13,-99.99,,,0.00,0,rob ver 1B,2013-07-29 20:30:00,
2013-07-29 13:31:00,103.9,43.7,29.41,SSE,163,14.9,18.2,13,-99.99,,,0.00,0,rob ver 1B,2013-07-29 20:31:00,
2013-07-29 13:32:00,103.8,43.6,29.41,SSE,160,14.9,19.1,13,-99.99,,,0.00,0,rob ver 1B,2013-07-29 20:32:00,
2013-07-29 13:33:00,103.7,43.6,29.41,SSE,162,15.7,18.7,13,-99.99,,,0.00,0,rob ver 1B,2013-07-29 20:33:00,
2013-07-29 13:34:00,103.7,43.6,29.41,South,170,14.7,18.2,13,-99.99,,,0.00,0,rob ver 1B,2013-07-29 20:34:00,
2013-07-29 13:35:00,103.7,43.5,29.41,South,171,12.7,19.0,13,-99.99,,,0.00,0,rob ver 1B,2013-07-29 20:35:00,
2013-07-29 13:36:00,103.1,43.6,29.41,SSW,199,8.7,11.4,13,-99.99,,,0.00,0,rob ver 1B,2013-07-29 20:36:00,
2013-07-29 13:37:00,103.1,43.7,29.44,SSE,168,11.3,15.4,13,-99.99,,,0.00,0,rob ver 1B,2013-07-29 20:37:00,
2013-07-29 13:38:00,103.1,43.7,29.41,South,173,9.3,14.3,13,-99.99,,,0.00,0,rob ver 1B,2013-07-29 20:38:00,
2013-07-29 13:39:00,102.9,43.9,29.41,South,171,7.4,12.7,13,-99.99,,,0.00,0,rob ver 1B,2013-07-29 20:39:00,
2013-07-29 13:40:00,102.9,43.9,29.41,SSE,155,8.1,10.9,13,-99.99,,,0.00,0,rob ver 1B,2013-07-29 20:40:00,
2013-07-29 13:41:00,102.9,43.9,29.44,SSE,156,5.4,8.6,13,-99.99,,,0.00,0,rob ver 1B,2013-07-29 20:41:00,
2013-07-29 13:42:00,103.0,43.8,29.44,SSE,160,5.3,7.8,13,-99.99,,,0.00,0,rob ver 1B,2013-07-29 20:42:00,
2013-07-29 13:43:00,103.2,43.9,29.41,South,191,5.2,8.6,13,-99.99,,,0.00,0,rob ver 1B,2013-07-29 20:43:00,
2013-07-29 13:44:00,103.5,44.3,29.41,SSE,163,8.9,12.1,13,-99.99,,,0.00,0,rob ver 1B,2013-07-29 20:44:00,
2013-07-29 13:45:00,103.3,44.1,29.41,SE,142,9.5,13.3,13,-99.99,,,0.00,0,rob ver 1B,2013-07-29 20:45:00,
2013-07-29 13:46:00,102.8,44.2,29.41,South,169,7.1,10.0,13,-99.99,,,0.00,0,rob ver 1B,2013-07-29 20:46:00,
2013-07-29 13:47:00,103.0,43.9,29.41,SSW,202,11.3,16.5,13,-99.99,,,0.00,0,rob ver 1B,2013-07-29 20:47:00,
2013-07-29 13:48:00,103.4,43.8,29.41,SSW,208,12.2,15.5,13,-99.99,,,0.00,0,rob ver 1B,2013-07-29 20:48:00,
2013-07-29 13:49:00,103.4,43.9,29.41,SSW,208,11.2,16.7,13,-99.99,,,0.00,0,rob ver 1B,2013-07-29 20:49:00,
2013-07-29 13:50:00,103.3,43.7,29.41,SW,218,12.1,15.5,13,-99.99,,,0.00,0,rob ver 1B,2013-07-29 20:50:00,
2013-07-29 13:51:00,103.0,43.6,29.41,SW,231,8.8,12.3,13,-99.99,,,0.00,0,rob ver 1B,2013-07-29 20:51:00,
2013-07-29 13:52:00,103.2,43.7,29.41,SSW,195,8.3,11.9,13,-99.99,,,0.00,0,rob ver 1B,2013-07-29 20:52:00,
2013-07-29 13:53:00,103.2,43.6,29.41,SW,218,7.6,12.1,13,-99.99,,,0.00,0,rob ver 1B,2013-07-29 20:53:00,
2013-07-29 13:54:00,103.3,43.7,29.41,SSW,197,3.6,6.7,13,-99.99,,,0.00,0,rob ver 1B,2013-07-29 20:54:00,
2013-07-29 13:55:00,103.6,43.8,29.41,South,175,5.4,7.2,13,-99.99,,,0.00,0,rob ver 1B,2013-07-29 20:55:00,
2013-07-29 13:56:00,103.8,43.8,29.41,SSE,163,4.7,7.1,13,-99.99,,,0.00,0,rob ver 1B,2013-07-29 20:56:00,
2013-07-29 13:57:00,103.9,43.4,29.41,SSE,149,7.9,11.8,12,-99.99,,,0.00,0,rob ver 1B,2013-07-29 20:57:00,
2013-07-29 13:58:00,104.0,42.5,29.41,SSE,153,8.2,11.0,12,-99.99,,,0.00,0,rob ver 1B,2013-07-29 20:58:00,
2013-07-29 13:59:00,104.1,42.6,29.41,SE,128,10.0,15.1,12,-99.99,,,0.00,0,rob ver 1B,2013-07-29 20:59:00,
2013-07-29 14:00:00,104.1,42.5,29.41,SE,135,9.6,12.3,12,-99.99,,,0.00,0,rob ver 1B,2013-07-29 21:00:00,
2013-07-29 14:01:00,104.1,42.3,29.41,SSE,155,9.2,12.8,12,-99.99,,,0.00,0,rob ver 1B,2013-07-29 21:01:00,
2013-07-29 14:02:00,104.0,41.2,29.41,SE,136,8.0,11.6,12,-99.99,,,0.00,0,rob ver 1B,2013-07-29 21:02:00,
2013-07-29 14:03:00,104.0,41.2,29.41,SE,132,11.9,17.7,11,-99.99,,,0.00,0,rob ver 1B,2013-07-29 21:03:00,
2013-07-29 14:04:00,104.1,41.5,29.41,ESE,121,13.8,17.2,11,-99.99,,,0.00,0,rob ver 1B,2013-07-29 21:04:00,
2013-07-29 14:05:00,104.2,41.7,29.41,ESE,123,12.2,15.5,12,-99.99,,,0.00,0,rob ver 1B,2013-07-29 21:05:00,
2013-07-29 14:06:00,104.1,42.3,29.41,SE,128,12.9,15.7,12,-99.99,,,0.00,0,rob ver 1B,2013-07-29 21:06:00,
2013-07-29 14:07:00,103.9,42.2,29.41,SE,125,10.9,15.9,12,-99.99,,,0.00,0,rob ver 1B,2013-07-29 21:07:00,
2013-07-29 14:08:00,103.7,42.5,29.41,ESE,120,12.8,15.9,12,-99.99,,,0.00,0,rob ver 1B,2013-07-29 21:08:00,
2013-07-29 14:09:00,103.8,43.1,29.41,SE,128,15.3,19.0,12,-99.99,,,0.00,0,rob ver 1B,2013-07-29 21:09:00,
2013-07-29 14:10:00,104.0,43.1,29.41,SE,128,15.3,18.0,13,-99.99,,,0.00,0,rob ver 1B,2013-07-29 21:10:00,
2013-07-29 14:11:00,104.7,43.4,29.41,SE,140,12.3,15.2,12,-99.99,,,0.00,0,rob ver 1B,2013-07-29 21:11:00,
2013-07-29 14:12:00,104.8,43.2,29.41,SE,131,8.8,14.1,12,-99.99,,,0.00,0,rob ver 1B,2013-07-29 21:12:00,
2013-07-29 14:13:00,104.4,43.4,29.41,SE,128,9.1,14.7,12,-99.99,,,0.00,0,rob ver 1B,2013-07-29 21:13:00,
2013-07-29 14:14:00,104.2,43.4,29.41,ESE,118,13.1,16.1,12,-99.99,,,0.00,0,rob ver 1B,2013-07-29 21:14:00,
2013-07-29 14:15:00,104.1,43.2,29.41,SE,132,13.2,18.4,12,-99.99,,,0.00,0,rob ver 1B,2013-07-29 21:15:00,
2013-07-29 14:16:00,103.9,43.1,29.41,SE,136,8.9,15.9,12,-99.99,,,0.00,0,rob ver 1B,2013-07-29 21:16:00,
2013-07-29 14:17:00,103.8,42.3,29.41,SSE,160,8.2,13.3,12,-99.99,,,0.00,0,rob ver 1B,2013-07-29 21:17:00,
2013-07-29 14:18:00,103.8,42.4,29.41,SSE,166,6.0,8.6,12,-99.99,,,0.00,0,rob ver 1B,2013-07-29 21:18:00,
2013-07-29 14:19:00,103.9,41.7,29.41,SSE,161,8.0,11.2,12,-99.99,,,0.00,0,rob ver 1B,2013-07-29 21:19:00,
2013-07-29 14:20:00,104.1,41.8,29.41,SE,134,9.5,14.2,12,-99.99,,,0.00,0,rob ver 1B,2013-07-29 21:20:00,
2013-07-29 14:21:00,104.5,41.8,29.41,SE,144,14.4,17.1,11,-99.99,,,0.00,0,rob ver 1B,2013-07-29 21:21:00,
2013-07-29 14:22:00,104.7,41.9,29.41,SSE,148,13.2,15.4,12,-99.99,,,0.00,0,rob ver 1B,2013-07-29 21:22:00,
2013-07-29 14:23:00,104.4,41.9,29.41,SE,137,11.7,14.9,12,-99.99,,,0.00,0,rob ver 1B,2013-07-29 21:23:00,
2013-07-29 14:24:00,104.5,41.7,29.41,SE,137,11.0,15.2,11,-99.99,,,0.00,0,rob ver 1B,2013-07-29 21:24:00,
2013-07-29 14:25:00,104.5,41.8,29.41,SE,126,5.3,7.4,12,-99.99,,,0.00,0,rob ver 1B,2013-07-29 21:25:00,
2013-07-29 14:26:00,104.6,42.0,29.41,ESE,103,8.6,11.5,11,-99.99,,,0.00,0,rob ver 1B,2013-07-29 21:26:00,
2013-07-29 14:27:00,104.8,42.4,29.41,ESE,106,11.1,14.1,12,-99.99,,,0.00,0,rob ver 1B,2013-07-29 21:27:00,
2013-07-29 14:28:00,104.5,42.8,29.41,SE,130,11.8,14.4,12,-99.99,,,0.00,0,rob ver 1B,2013-07-29 21:28:00,
2013-07-29 14:29:00,104.2,42.9,29.41,SE,140,9.1,12.2,12,-99.99,,,0.00,0,rob ver 1B,2013-07-29 21:29:00,
2013-07-29 14:30:00,104.2,42.9,29.41,South,171,9.3,11.5,12,-99.99,,,0.00,0,rob ver 1B,2013-07-29 21:30:00,
2013-07-29 14:31:00,104.6,43.1,29.41,South,177,11.2,13.7,12,-99.99,,,0.00,0,rob ver 1B,2013-07-29 21:31:00,
2013-07-29 14:32:00,104.9,42.7,29.41,SSW,195,10.0,15.7,12,-99.99,,,0.00,0,rob ver 1B,2013-07-29 21:32:00,
2013-07-29 14:33:00,104.9,42.9,29.41,SSW,192,5.1,8.5,12,-99.99,,,0.00,0,rob ver 1B,2013-07-29 21:33:00,
2013-07-29 14:34:00,105.2,43.1,29.41,South,186,13.2,17.1,12,-99.99,,,0.00,0,rob ver 1B,2013-07-29 21:34:00,
2013-07-29 14:35:00,105.6,42.8,29.41,South,182,13.9,16.4,12,-99.99,,,0.00,0,rob ver 1B,2013-07-29 21:35:00,
2013-07-29 14:36:00,105.3,42.8,29.41,South,178,9.4,12.6,12,-99.99,,,0.00,0,rob ver 1B,2013-07-29 21:36:00,
2013-07-29 14:37:00,105.0,43.1,29.41,South,172,8.3,13.0,12,-99.99,,,0.00,0,rob ver 1B,2013-07-29 21:37:00,
2013-07-29 14:38:00,104.9,43.0,29.41,SSE,155,8.8,11.1,12,-99.99,,,0.00,0,rob ver 1B,2013-07-29 21:38:00,
2013-07-29 14:39:00,104.5,43.1,29.41,SE,129,6.1,8.9,12,-99.99,,,0.00,0,rob ver 1B,2013-07-29 21:39:00,
2013-07-29 14:40:00,104.5,43.1,29.41,SE,137,6.4,11.3,12,-99.99,,,0.00,0,rob ver 1B,2013-07-29 21:40:00,
2013-07-29 14:41:00,104.8,43.2,29.41,SE,134,7.7,11.1,12,-99.99,,,0.00,0,rob ver 1B,2013-07-29 21:41:00,
2013-07-29 14:42:00,105.2,43.4,29.41,SE,134,5.1,12.1,12,-99.99,,,0.00,0,rob ver 1B,2013-07-29 21:42:00,
2013-07-29 14:43:00,105.1,43.2,29.41,SSE,149,12.0,18.1,12,-99.99,,,0.00,0,rob ver 1B,2013-07-29 21:43:00,
2013-07-29 14:44:00,104.6,43.3,29.41,SSE,149,6.9,13.0,12,-99.99,,,0.00,0,rob ver 1B,2013-07-29 21:44:00,
2013-07-29 14:45:00,104.5,43.4,29.41,SSE,148,7.1,14.9,12,-99.99,,,0.00,0,rob ver 1B,2013-07-29 21:45:00,
2013-07-29 14:46:00,104.7,43.0,29.41,SE,145,14.3,17.6,12,-99.99,,,0.00,0,rob ver 1B,2013-07-29 21:46:00,
2013-07-29 14:47:00,105.0,42.5,29.41,SE,131,13.1,16.1,12,-99.99,,,0.00,0,rob ver 1B,2013-07-29 21:47:00,
2013-07-29 14:48:00,105.0,42.4,29.41,SE,132,9.9,14.7,12,-99.99,,,0.00,0,rob ver 1B,2013-07-29 21:48:00,
2013-07-29 14:49:00,104.8,42.2,29.41,East,98,7.4,10.2,12,-99.99,,,0.00,0,rob ver 1B,2013-07-29 21:49:00,
2013-07-29 14:50:00,104.6,42.3,29.41,ESE,117,7.0,9.9,12,-99.99,,,0.00,0,rob ver 1B,2013-07-29 21:50:00,
2013-07-29 14:51:00,104.4,43.0,29.41,ESE,119,8.0,11.3,12,-99.99,,,0.00,0,rob ver 1B,2013-07-29 21:51:00,
2013-07-29 14:52:00,104.5,43.3,29.41,SE,132,11.6,15.4,12,-99.99,,,0.00,0,rob ver 1B,2013-07-29 21:52:00,
2013-07-29 14:53:00,104.4,43.5,29.41,SE,134,10.7,14.1,13,-99.99,,,0.00,0,rob ver 1B,2013-07-29 21:53:00,
2013-07-29 14:54:00,104.3,43.6,29.41,SE,128,6.7,9.9,12,-99.99,,,0.00,0,rob ver 1B,2013-07-29 21:54:00,
2013-07-29 14:55:00,104.8,43.5,29.41,SE,137,12.3,16.0,12,-99.99,,,0.00,0,rob ver 1B,2013-07-29 21:55:00,
2013-07-29 14:56:00,105.2,43.0,29.41,SE,129,11.8,16.6,12,-99.99,,,0.00,0,rob ver 1B,2013-07-29 21:56:00,
2013-07-29 14:57:00,105.2,43.2,29.41,SE,132,9.4,12.9,12,-99.99,,,0.00,0,rob ver 1B,2013-07-29 21:57:00,
2013-07-29 14:58:00,104.7,43.0,29.41,ESE,113,8.8,11.7,12,-99.99,,,0.00,0,rob ver 1B,2013-07-29 21:58:00,
2013-07-29 14:59:00,104.4,42.8,29.41,ESE,106,5.3,7.5,12,-99.99,,,0.00,0,rob ver 1B,2013-07-29 21:59:00,
2013-07-29 15:00:00,104.8,43.8,29.38,SSE,147,12.4,18.6,12,-99.99,,,0.00,0,rob ver 1B,2013-07-29 22:00:00,
2013-07-29 15:01:00,105.2,43.9,29.38,SE,142,11.1,14.6,12,-99.99,,,0.00,0,rob ver 1B,2013-07-29 22:01:00,
2013-07-29 15:02:00,105.1,43.8,29.41,SE,142,12.2,14.5,12,-99.99,,,0.00,0,rob ver 1B,2013-07-29 22:02:00,
2013-07-29 15:03:00,104.7,43.8,29.41,SE,133,8.4,12.2,12,-99.99,,,0.00,0,rob ver 1B,2013-07-29 22:03:00,
2013-07-29 15:04:00,104.5,44.0,29.41,SE,132,8.8,14.2,13,-99.99,,,0.00,0,rob ver 1B,2013-07-29 22:04:00,
2013-07-29 15:05:00,104.3,44.0,29.41,ESE,102,9.2,11.1,13,-99.99,,,0.00,0,rob ver 1B,2013-07-29 22:05:00,
2013-07-29 15:06:00,104.3,43.9,29.38,ESE,106,8.0,13.4,13,-99.99,,,0.00,0,rob ver 1B,2013-07-29 22:06:00,
2013-07-29 15:07:00,104.5,43.4,29.41,ESE,109,6.5,9.8,12,-99.99,,,0.00,0,rob ver 1B,2013-07-29 22:07:00,
2013-07-29 15:08:00,104.2,43.3,29.41,NE,53,2.7,5.0,12,-99.99,,,0.00,0,rob ver 1B,2013-07-29 22:08:00,
2013-07-29 15:09:00,104.3,43.6,29.41,ENE,76,1.4,3.9,13,-99.99,,,0.00,0,rob ver 1B,2013-07-29 22:09:00,
2013-07-29 15:10:00,104.5,43.8,29.38,East,95,6.0,9.8,12,-99.99,,,0.00,0,rob ver 1B,2013-07-29 22:10:00,
2013-07-29 15:11:00,104.8,43.8,29.38,SSE,158,12.0,18.5,12,-99.99,,,0.00,0,rob ver 1B,2013-07-29 22:11:00,
2013-07-29 15:12:00,104.9,43.4,29.38,SSE,154,14.2,19.2,12,-99.99,,,0.00,0,rob ver 1B,2013-07-29 22:12:00,
2013-07-29 15:13:00,104.8,43.4,29.38,SE,132,11.6,15.6,12,-99.99,,,0.00,0,rob ver 1B,2013-07-29 22:13:00,
2013-07-29 15:14:00,104.9,43.6,29.38,SE,133,10.0,12.6,12,-99.99,,,0.00,0,rob ver 1B,2013-07-29 22:14:00,
2013-07-29 15:15:00,104.7,43.6,29.38,SE,138,6.6,10.6,12,-99.99,,,0.00,0,rob ver 1B,2013-07-29 22:15:00,
2013-07-29 15:16:00,104.5,43.8,29.38,SE,125,4.7,13.2,13,-99.99,,,0.00,0,rob ver 1B,2013-07-29 22:16:00,
2013-07-29 15:17:00,104.7,43.7,29.38,SE,141,9.8,12.6,12,-99.99,,,0.00,0,rob ver 1B,2013-07-29 22:17:00,
2013-07-29 15:18:00,104.7,43.8,29.38,ESE,115,8.2,11.3,12,-99.99,,,0.00,0,rob ver 1B,2013-07-29 22:18:00,
2013-07-29 15:19:00,104.6,43.7,29.38,ESE,112,9.4,13.4,12,-99.99,,,0.00,0,rob ver 1B,2013-07-29 22:19:00,
2013-07-29 15:20:00,104.5,43.8,29.38,ESE,108,7.7,13.3,13,-99.99,,,0.00,0,rob ver 1B,2013-07-29 22:20:00,
2013-07-29 15:21:00,104.6,43.8,29.38,SSE,149,8.1,13.2,12,-99.99,,,0.00,0,rob ver 1B,2013-07-29 22:21:00,
2013-07-29 15:22:00,105.2,44.3,29.38,SE,144,9.2,14.5,12,-99.99,,,0.00,0,rob ver 1B,2013-07-29 22:22:00,
2013-07-29 15:23:00,105.7,44.6,29.38,SE,137,11.4,14.6,13,-99.99,,,0.00,0,rob ver 1B,2013-07-29 22:23:00,
2013-07-29 15:24:00,106.0,44.6,29.38,SE,139,12.2,15.1,12,-99.99,,,0.00,0,rob ver 1B,2013-07-29 22:24:00,
2013-07-29 15:25:00,105.8,44.5,29.38,SSE,157,10.6,13.2,12,-99.99,,,0.00,0,rob ver 1B,2013-07-29 22:25:00,
2013-07-29 15:26:00,105.5,44.5,29.38,SSE,154,9.2,12.3,13,-99.99,,,0.00,0,rob ver 1B,2013-07-29 22:26:00,
2013-07-29 15:27:00,105.4,44.0,29.38,ESE,120,8.7,15.0,12,-99.99,,,0.00,0,rob ver 1B,2013-07-29 22:27:00,
2013-07-29 15:28:00,105.3,43.9,29.38,SE,125,7.7,10.5,12,-99.99,,,0.00,0,rob ver 1B,2013-07-29 22:28:00,
2013-07-29 15:29:00,105.0,44.2,29.38,SE,129,7.4,9.7,13,-99.99,,,0.00,0,rob ver 1B,2013-07-29 22:29:00,
2013-07-29 15:30:00,105.0,44.5,29.38,ESE,122,9.1,11.6,13,-99.99,,,0.00,0,rob ver 1B,2013-07-29 22:30:00,
2013-07-29 15:31:00,104.9,44.6,29.38,ESE,109,11.8,19.8,13,-99.99,,,0.00,0,rob ver 1B,2013-07-29 22:31:00,
2013-07-29 15:32:00,105.0,44.6,29.38,SSE,147,14.5,21.3,13,-99.99,,,0.00,0,rob ver 1B,2013-07-29 22:32:00,
2013-07-29 15:33:00,105.0,44.6,29.38,SE,141,12.2,15.3,12,-99.99,,,0.00,0,rob ver 1B,2013-07-29 22:33:00,
2013-07-29 15:34:00,105.3,44.4,29.38,SE,144,11.7,15.2,13,-99.99,,,0.00,0,rob ver 1B,2013-07-29 22:34:00,
2013-07-29 15:35:00,105.9,44.5,29.38,SSE,168,10.1,13.2,12,-99.99,,,0.00,0,rob ver 1B,2013-07-29 22:35:00,
2013-07-29 15:36:00,106.2,44.1,29.38,SSE,163,12.9,16.8,12,-99.99,,,0.00,0,rob ver 1B,2013-07-29 22:36:00,
2013-07-29 15:37:00,105.7,43.8,29.38,SSE,153,8.3,12.8,12,-99.99,,,0.00,0,rob ver 1B,2013-07-29 22:37:00,
2013-07-29 15:38:00,105.5,43.9,29.38,SE,138,5.8,10.5,12,-99.99,,,0.00,0,rob ver 1B,2013-07-29 22:38:00,
2013-07-29 15:39:00,105.8,44.0,29.38,SE,138,7.7,16.3,12,-99.99,,,0.00,0,rob ver 1B,2013-07-29 22:39:00,
2013-07-29 15:40:00,105.6,43.8,29.38,ESE,112,8.4,11.4,12,-99.99,,,0.00,0,rob ver 1B,2013-07-29 22:40:00,
2013-07-29 15:41:00,105.3,44.0,29.38,SE,143,11.7,15.2,12,-99.99,,,0.00,0,rob ver 1B,2013-07-29 22:41:00,
2013-07-29 15:42:00,105.2,43.9,29.38,SSE,150,13.1,15.0,12,-99.99,,,0.00,0,rob ver 1B,2013-07-29 22:42:00,
2013-07-29 15:43:00,104.9,43.2,29.38,SE,145,9.9,13.9,12,-99.99,,,0.00,0,rob ver 1B,2013-07-29 22:43:00,
2013-07-29 15:44:00,105.0,43.4,29.38,SE,145,9.7,11.9,12,-99.99,,,0.00,0,rob ver 1B,2013-07-29 22:44:00,
2013-07-29 15:45:00,105.1,43.7,29.38,SSE,152,5.8,12.3,12,-99.99,,,0.00,0,rob ver 1B,2013-07-29 22:45:00,
2013-07-29 15:46:00,105.1,44.0,29.38,SE,128,9.9,18.0,13,-99.99,,,0.00,0,rob ver 1B,2013-07-29 22:46:00,
2013-07-29 15:47:00,105.2,44.3,29.38,SE,132,14.3,17.2,12,-99.99,,,0.00,0,rob ver 1B,2013-07-29 22:47:00,
2013-07-29 15:48:00,105.0,44.2,29.38,SE,142,9.2,13.4,13,-99.99,,,0.00,0,rob ver 1B,2013-07-29 22:48:00,
2013-07-29 15:49:00,104.8,44.3,29.38,ESE,119,9.7,12.5,13,-99.99,,,0.00,0,rob ver 1B,2013-07-29 22:49:00,
2013-07-29 15:50:00,105.0,44.2,29.38,ESE,107,10.5,15.5,13,-99.99,,,0.00,0,rob ver 1B,2013-07-29 22:50:00,
2013-07-29 15:51:00,105.0,44.2,29.38,SE,131,7.9,12.4,12,-99.99,,,0.00,0,rob ver 1B,2013-07-29 22:51:00,
2013-07-29 15:52:00,105.0,44.1,29.38,SE,136,6.9,9.4,12,-99.99,,,0.00,0,rob ver 1B,2013-07-29 22:52:00,
2013-07-29 15:53:00,105.2,44.0,29.38,SE,129,8.9,17.1,12,-99.99,,,0.00,0,rob ver 1B,2013-07-29 22:53:00,
2013-07-29 15:54:00,105.3,43.9,29.38,SSE,147,10.1,14.7,12,-99.99,,,0.00,0,rob ver 1B,2013-07-29 22:54:00,
2013-07-29 15:55:00,105.2,43.8,29.38,SSE,155,9.8,12.6,12,-99.99,,,0.00,0,rob ver 1B,2013-07-29 22:55:00,
2013-07-29 15:56:00,105.0,43.9,29.38,SSE,147,9.5,12.2,12,-99.99,,,0.00,0,rob ver 1B,2013-07-29 22:56:00,
2013-07-29 15:57:00,105.2,44.0,29.38,SE,146,9.5,13.3,12,-99.99,,,0.00,0,rob ver 1B,2013-07-29 22:57:00,
2013-07-29 15:58:00,105.2,43.6,29.38,ESE,107,11.2,15.6,12,-99.99,,,0.00,0,rob ver 1B,2013-07-29 22:58:00,
2013-07-29 15:59:00,105.2,43.4,29.38,East,92,9.7,16.3,12,-99.99,,,0.00,0,rob ver 1B,2013-07-29 22:59:00,
2013-07-29 16:00:00,105.1,43.4,29.38,SE,124,10.8,12.6,12,-99.99,,,0.00,0,rob ver 1B,2013-07-29 23:00:00,
2013-07-29 16:01:00,105.0,43.4,29.38,ESE,103,10.9,13.3,12,-99.99,,,0.00,0,rob ver 1B,2013-07-29 23:01:00,
2013-07-29 16:02:00,105.4,43.3,29.38,SE,126,13.3,17.7,12,-99.99,,,0.00,0,rob ver 1B,2013-07-29 23:02:00,
2013-07-29 16:03:00,105.6,43.1,29.38,SE,138,12.8,16.2,12,-99.99,,,0.00,0,rob ver 1B,2013-07-29 23:03:00,
2013-07-29 16:04:00,105.6,43.1,29.38,SE,146,14.3,19.0,12,-99.99,,,0.00,0,rob ver 1B,2013-07-29 23:04:00,
2013-07-29 16:05:00,105.6,43.1,29.38,SE,135,11.1,14.7,12,-99.99,,,0.00,0,rob ver 1B,2013-07-29 23:05:00,
2013-07-29 16:06:00,105.7,43.3,29.38,SSE,147,10.9,13.1,12,-99.99,,,0.00,0,rob ver 1B,2013-07-29 23:06:00,
2013-07-29 16:07:00,105.8,43.1,29.38,SE,141,9.6,11.7,12,-99.99,,,0.00,0,rob ver 1B,2013-07-29 23:07:00,
2013-07-29 16:08:00,105.5,43.2,29.38,SE,143,9.0,13.5,12,-99.99,,,0.00,0,rob ver 1B,2013-07-29 23:08:00,
2013-07-29 16:09:00,105.5,43.0,29.38,SSE,162,10.7,14.2,12,-99.99,,,0.00,0,rob ver 1B,2013-07-29 23:09:00,
2013-07-29 16:10:00,105.2,42.9,29.38,SE,129,5.0,7.2,12,-99.99,,,0.00,0,rob ver 1B,2013-07-29 23:10:00,
2013-07-29 16:11:00,105.1,43.2,29.38,SSE,150,5.4,9.4,12,-99.99,,,0.00,0,rob ver 1B,2013-07-29 23:11:00,
2013-07-29 16:12:00,105.4,43.2,29.38,SE,142,7.2,10.3,12,-99.99,,,0.00,0,rob ver 1B,2013-07-29 23:12:00,
2013-07-29 16:13:00,105.4,43.2,29.38,SSE,159,7.1,9.5,12,-99.99,,,0.00,0,rob ver 1B,2013-07-29 23:13:00,
2013-07-29 16:14:00,105.4,43.1,29.38,South,180,7.4,9.9,12,-99.99,,,0.00,0,rob ver 1B,2013-07-29 23:14:00,
2013-07-29 16:15:00,105.6,43.2,29.38,South,175,8.5,10.5,12,-99.99,,,0.00,0,rob ver 1B,2013-07-29 23:15:00,
2013-07-29 16:16:00,105.8,43.1,29.38,SSE,160,6.4,11.2,12,-99.99,,,0.00,0,rob ver 1B,2013-07-29 23:16:00,
2013-07-29 16:17:00,105.7,43.0,29.38,ESE,113,4.5,7.6,12,-99.99,,,0.00,0,rob ver 1B,2013-07-29 23:17:00,
2013-07-29 16:18:00,105.5,43.0,29.38,SE,133,7.2,11.5,12,-99.99,,,0.00,0,rob ver 1B,2013-07-29 23:18:00,
2013-07-29 16:19:00,105.8,42.5,29.38,SE,130,11.3,14.9,11,-99.99,,,0.00,0,rob ver 1B,2013-07-29 23:19:00,
2013-07-29 16:20:00,105.9,42.2,29.38,ESE,121,11.2,14.5,11,-99.99,,,0.00,0,rob ver 1B,2013-07-29 23:20:00,
2013-07-29 16:21:00,105.8,42.2,29.38,ESE,122,14.4,18.6,11,-99.99,,,0.00,0,rob ver 1B,2013-07-29 23:21:00,
2013-07-29 16:22:00,105.7,42.0,29.38,ESE,113,12.5,16.6,11,-99.99,,,0.00,0,rob ver 1B,2013-07-29 23:22:00,
2013-07-29 16:23:00,105.6,42.0,29.38,ESE,112,9.1,12.1,11,-99.99,,,0.00,0,rob ver 1B,2013-07-29 23:23:00,
2013-07-29 16:24:00,105.4,42.3,29.38,ESE,123,10.3,16.1,11,-99.99,,,0.00,0,rob ver 1B,2013-07-29 23:24:00,
2013-07-29 16:25:00,105.5,42.6,29.38,SE,126,9.0,11.2,11,-99.99,,,0.00,0,rob ver 1B,2013-07-29 23:25:00,
2013-07-29 16:26:00,105.8,42.7,29.38,SE,136,8.0,14.5,12,-99.99,,,0.00,0,rob ver 1B,2013-07-29 23:26:00,
2013-07-29 16:27:00,105.8,42.5,29.38,SE,131,11.0,14.5,11,-99.99,,,0.00,0,rob ver 1B,2013-07-29 23:27:00,
2013-07-29 16:28:00,105.2,42.4,29.38,SE,146,5.6,9.8,12,-99.99,,,0.00,0,rob ver 1B,2013-07-29 23:28:00,
2013-07-29 16:29:00,105.0,42.6,29.38,ESE,119,5.6,8.2,12,-99.99,,,0.00,0,rob ver 1B,2013-07-29 23:29:00,
2013-07-29 16:30:00,104.9,42.4,29.38,ESE,120,6.1,8.0,12,-99.99,,,0.00,0,rob ver 1B,2013-07-29 23:30:00,
2013-07-29 16:31:00,104.8,42.3,29.38,ESE,110,5.8,10.3,12,-99.99,,,0.00,0,rob ver 1B,2013-07-29 23:31:00,
2013-07-29 16:32:00,104.9,41.9,29.38,ESE,108,5.9,8.2,11,-99.99,,,0.00,0,rob ver 1B,2013-07-29 23:32:00,
2013-07-29 16:33:00,104.9,41.8,29.38,SE,127,8.8,12.7,11,-99.99,,,0.00,0,rob ver 1B,2013-07-29 23:33:00,
2013-07-29 16:34:00,105.2,41.6,29.38,SE,126,11.5,14.9,11,-99.99,,,0.00,0,rob ver 1B,2013-07-29 23:34:00,
2013-07-29 16:35:00,105.4,41.7,29.38,SE,126,10.8,14.7,11,-99.99,,,0.00,0,rob ver 1B,2013-07-29 23:35:00,
2013-07-29 16:36:00,105.3,41.9,29.38,SE,135,8.6,11.6,11,-99.99,,,0.00,0,rob ver 1B,2013-07-29 23:36:00,
2013-07-29 16:37:00,105.3,41.5,29.38,SE,137,7.0,10.2,11,-99.99,,,0.00,0,rob ver 1B,2013-07-29 23:37:00,
2013-07-29 16:38:00,105.3,41.7,29.38,ESE,122,9.8,14.6,11,-99.99,,,0.00,0,rob ver 1B,2013-07-29 23:38:00,
2013-07-29 16:39:00,105.1,41.7,29.38,SE,129,9.2,12.5,11,-99.99,,,0.00,0,rob ver 1B,2013-07-29 23:39:00,
2013-07-29 16:40:00,105.1,41.8,29.38,SE,134,9.6,13.3,11,-99.99,,,0.00,0,rob ver 1B,2013-07-29 23:40:00,
2013-07-29 16:41:00,105.3,41.8,29.38,ESE,118,10.4,13.6,11,-99.99,,,0.00,0,rob ver 1B,2013-07-29 23:41:00,
2013-07-29 16:42:00,105.3,41.8,29.35,SE,129,8.7,13.1,11,-99.99,,,0.00,0,rob ver 1B,2013-07-29 23:42:00,
2013-07-29 16:43:00,105.1,41.8,29.35,SE,127,9.7,18.0,11,-99.99,,,0.00,0,rob ver 1B,2013-07-29 23:43:00,
2013-07-29 16:44:00,104.9,42.0,29.38,SE,130,9.9,13.2,12,-99.99,,,0.00,0,rob ver 1B,2013-07-29 23:44:00,
2013-07-29 16:45:00,104.9,42.1,29.38,SE,135,11.0,14.3,12,-99.99,,,0.00,0,rob ver 1B,2013-07-29 23:45:00,
2013-07-29 16:46:00,105.0,42.2,29.38,SE,140,9.8,13.2,12,-99.99,,,0.00,0,rob ver 1B,2013-07-29 23:46:00,
2013-07-29 16:47:00,105.2,42.1,29.35,SSE,158,7.8,10.8,12,-99.99,,,0.00,0,rob ver 1B,2013-07-29 23:47:00,
2013-07-29 16:48:00,105.3,42.1,29.35,SSE,152,8.5,11.4,11,-99.99,,,0.00,0,rob ver 1B,2013-07-29 23:48:00,
2013-07-29 16:49:00,105.2,41.8,29.38,SE,141,6.8,8.6,11,-99.99,,,0.00,0,rob ver 1B,2013-07-29 23:49:00,
2013-07-29 16:50:00,105.0,41.9,29.38,SE,142,4.6,6.8,12,-99.99,,,0.00,0,rob ver 1B,2013-07-29 23:50:00,
2013-07-29 16:51:00,105.1,41.9,29.35,SE,132,6.4,8.6,11,-99.99,,,0.00,0,rob ver 1B,2013-07-29 23:51:00,
2013-07-29 16:52:00,104.9,41.7,29.35,SE,128,7.2,10.8,11,-99.99,,,0.00,0,rob ver 1B,2013-07-29 23:52:00,
2013-07-29 16:53:00,104.8,41.7,29.35,ESE,115,7.5,11.1,11,-99.99,,,0.00,0,rob ver 1B,2013-07-29 23:53:00,
2013-07-29 16:54:00,104.7,42.1,29.35,SSE,158,7.0,11.0,12,-99.99,,,0.00,0,rob ver 1B,2013-07-29 23:54:00,
2013-07-29 16:55:00,104.9,42.2,29.35,SSE,149,6.3,8.2,12,-99.99,,,0.00,0,rob ver 1B,2013-07-29 23:55:00,
2013-07-29 16:56:00,104.9,42.4,29.35,SSE,151,9.3,13.1,12,-99.99,,,0.00,0,rob ver 1B,2013-07-29 23:56:00,
2013-07-29 16:57:00,104.9,42.6,29.35,SSE,160,7.2,8.8,12,-99.99,,,0.00,0,rob ver 1B,2013-07-29 23:57:00,
2013-07-29 16:58:00,105.0,42.7,29.35,South,170,8.2,12.0,12,-99.99,,,0.00,0,rob ver 1B,2013-07-29 23:58:00,
2013-07-29 16:59:00,104.9,42.7,29.35,SSE,154,6.3,11.3,12,-99.99,,,0.00,0,rob ver 1B,2013-07-29 23:59:00,
2013-07-29 17:00:00,104.9,42.8,29.35,South,177,7.0,9.6,12,-99.99,,,0.00,0,rob ver 1B,2013-07-30 00:00:00,
2013-07-29 17:01:00,105.2,42.8,29.35,South,185,8.4,10.6,12,-99.99,,,0.00,0,rob ver 1B,2013-07-30 00:01:00,
2013-07-29 17:02:00,105.4,42.1,29.35,South,175,13.8,17.9,11,-99.99,,,0.00,0,rob ver 1B,2013-07-30 00:02:00,
2013-07-29 17:03:00,105.1,41.6,29.35,South,174,11.8,15.2,11,-99.99,,,0.00,0,rob ver 1B,2013-07-30 00:03:00,
2013-07-29 17:04:00,105.0,41.7,29.35,South,179,9.9,13.3,11,-99.99,,,0.00,0,rob ver 1B,2013-07-30 00:04:00,
2013-07-29 17:05:00,105.3,41.9,29.35,South,191,7.7,13.6,11,-99.99,,,0.00,0,rob ver 1B,2013-07-30 00:05:00,
2013-07-29 17:06:00,105.6,41.9,29.35,SE,138,5.6,7.3,11,-99.99,,,0.00,0,rob ver 1B,2013-07-30 00:06:00,
2013-07-29 17:07:00,105.5,41.7,29.35,ESE,110,7.5,10.4,11,-99.99,,,0.00,0,rob ver 1B,2013-07-30 00:07:00,
2013-07-29 17:08:00,105.3,41.9,29.35,SE,131,4.4,6.0,11,-99.99,,,0.00,0,rob ver 1B,2013-07-30 00:08:00,
2013-07-29 17:09:00,105.6,42.2,29.35,SE,146,8.0,10.4,11,-99.99,,,0.00,0,rob ver 1B,2013-07-30 00:09:00,
2013-07-29 17:10:00,105.9,42.3,29.35,SSE,147,10.2,15.3,11,-99.99,,,0.00,0,rob ver 1B,2013-07-30 00:10:00,
2013-07-29 17:11:00,106.2,42.3,29.35,SSE,156,13.1,20.5,11,-99.99,,,0.00,0,rob ver 1B,2013-07-30 00:11:00,
2013-07-29 17:12:00,106.4,42.4,29.35,South,176,14.9,17.7,11,-99.99,,,0.00,0,rob ver 1B,2013-07-30 00:12:00,
2013-07-29 17:13:00,106.2,42.4,29.35,South,172,14.1,16.6,11,-99.99,,,0.00,0,rob ver 1B,2013-07-30 00:13:00,
2013-07-29 17:14:00,106.0,42.4,29.35,South,172,13.6,17.2,11,-99.99,,,0.00,0,rob ver 1B,2013-07-30 00:14:00,
2013-07-29 17:15:00,105.9,42.5,29.35,South,180,15.2,19.4,11,-99.99,,,0.00,0,rob ver 1B,2013-07-30 00:15:00,
2013-07-29 17:16:00,106.0,42.3,29.35,South,185,13.5,17.3,11,-99.99,,,0.00,0,rob ver 1B,2013-07-30 00:16:00,
2013-07-29 17:17:00,105.9,42.2,29.35,South,185,11.4,16.0,11,-99.99,,,0.00,0,rob ver 1B,2013-07-30 00:17:00,
2013-07-29 17:18:00,105.8,42.1,29.35,South,180,14.6,18.6,11,-99.99,,,0.00,0,rob ver 1B,2013-07-30 00:18:00,
2013-07-29 17:19:00,105.6,42.1,29.35,SSE,162,12.1,14.0,11,-99.99,,,0.00,0,rob ver 1B,2013-07-30 00:19:00,
2013-07-29 17:20:00,105.3,42.2,29.35,SSE,150,12.6,16.6,11,-99.99,,,0.00,0,rob ver 1B,2013-07-30 00:20:00,
2013-07-29 17:21:00,105.5,42.3,29.35,South,178,15.4,23.4,11,-99.99,,,0.00,0,rob ver 1B,2013-07-30 00:21:00,
2013-07-29 17:22:00,105.5,42.3,29.35,South,183,14.6,18.4,11,-99.99,,,0.00,2451,rob ver 1B,2013-07-30 00:22:00,
2013-07-29 17:23:00,105.6,42.3,29.35,South,178,14.8,18.7,11,-99.99,,,0.00,2134,rob ver 1B,2013-07-30 00:23:00,
2013-07-29 17:24:00,105.5,42.3,29.35,South,178,13.7,17.7,12,-99.99,,,0.00,1983,rob ver 1B,2013-07-30 00:24:00,
2013-07-29 17:25:00,105.2,42.6,29.35,SSE,164,13.0,15.9,12,-99.99,,,0.00,2007,rob ver 1B,2013-07-30 00:25:00,
2013-07-29 17:26:00,105.2,42.7,29.35,South,170,13.1,16.5,12,-99.99,,,0.00,2201,rob ver 1B,2013-07-30 00:26:00,
2013-07-29 17:27:00,105.3,42.5,29.35,South,181,15.9,22.3,12,-99.99,,,0.00,2269,rob ver 1B,2013-07-30 00:27:00,
2013-07-29 17:28:00,105.2,42.4,29.35,South,172,15.9,19.2,12,-99.99,,,0.00,2447,rob ver 1B,2013-07-30 00:28:00,
2013-07-29 17:29:00,105.2,42.3,29.35,SSE,162,11.6,14.2,12,-99.99,,,0.00,2491,rob ver 1B,2013-07-30 00:29:00,
2013-07-29 17:30:00,105.3,42.2,29.35,SSE,161,12.5,15.5,11,-99.99,,,0.00,2478,rob ver 1B,2013-07-30 00:30:00,
2013-07-29 17:31:00,105.3,42.4,29.35,South,176,11.1,14.0,12,-99.99,,,0.00,2429,rob ver 1B,2013-07-30 00:31:00,
2013-07-29 17:32:00,105.2,42.4,29.35,South,174,13.3,17.5,12,-99.99,,,0.00,2381,rob ver 1B,2013-07-30 00:32:00,
2013-07-29 17:33:00,105.1,42.2,29.35,South,174,15.4,18.7,12,-99.99,,,0.00,2420,rob ver 1B,2013-07-30 00:33:00,
2013-07-29 17:34:00,104.9,42.2,29.35,South,177,13.7,18.5,11,-99.99,,,0.00,2362,rob ver 1B,2013-07-30 00:34:00,
2013-07-29 17:35:00,104.8,42.0,29.35,South,176,14.6,16.7,12,-99.99,,,0.00,2069,rob ver 1B,2013-07-30 00:35:00,
2013-07-29 17:36:00,104.6,41.9,29.35,SSE,160,13.8,15.8,12,-99.99,,,0.00,1454,rob ver 1B,2013-07-30 00:36:00,
2013-07-29 17:37:00,104.3,41.9,29.35,SSE,158,12.9,17.8,12,-99.99,,,0.00,1880,rob ver 1B,2013-07-30 00:37:00,
2013-07-29 17:38:00,104.1,41.9,29.35,SSE,165,9.9,15.7,12,-99.99,,,0.00,2197,rob ver 1B,2013-07-30 00:38:00,
2013-07-29 17:39:00,104.2,41.7,29.35,South,182,13.2,15.9,12,-99.99,,,0.00,2113,rob ver 1B,2013-07-30 00:39:00,
2013-07-29 17:40:00,104.3,41.6,29.35,SSW,194,12.2,17.6,12,-99.99,,,0.00,2207,rob ver 1B,2013-07-30 00:40:00,
2013-07-29 17:41:00,104.5,41.7,29.35,South,182,13.1,16.3,11,-99.99,,,0.00,2214,rob ver 1B,2013-07-30 00:41:00,
2013-07-29 17:42:00,104.7,41.7,29.35,South,177,13.1,16.1,11,-99.99,,,0.00,2248,rob ver 1B,2013-07-30 00:42:00,
2013-07-29 17:43:00,104.8,41.8,29.35,SSE,167,14.9,17.5,11,-99.99,,,0.00,2110,rob ver 1B,2013-07-30 00:43:00,
2013-07-29 17:44:00,104.7,41.7,29.35,SSE,164,13.2,17.2,11,-99.99,,,0.00,1802,rob ver 1B,2013-07-30 00:44:00,
2013-07-29 17:45:00,104.7,41.6,29.35,SSE,159,12.3,16.5,11,-99.99,,,0.00,1562,rob ver 1B,2013-07-30 00:45:00,
2013-07-29 17:46:00,104.2,41.6,29.35,South,171,10.0,14.0,12,-99.99,,,0.00,1818,rob ver 1B,2013-07-30 00:46:00,
2013-07-29 17:47:00,104.2,41.6,29.35,SSE,164,12.8,17.2,11,-99.99,,,0.00,2186,rob ver 1B,2013-07-30 00:47:00,
2013-07-29 17:48:00,104.4,41.3,29.35,SSE,164,15.4,19.8,11,-99.99,,,0.00,2156,rob ver 1B,2013-07-30 00:48:00,
2013-07-29 17:49:00,104.1,41.3,29.35,SSE,165,15.5,17.7,12,-99.99,,,0.00,2127,rob ver 1B,2013-07-30 00:49:00,
2013-07-29 17:50:00,104.0,41.5,29.35,SSE,163,16.1,19.0,12,-99.99,,,0.00,2104,rob ver 1B,2013-07-30 00:50:00,
2013-07-29 17:51:00,104.0,41.5,29.35,SSE,166,13.9,16.0,12,-99.99,,,0.00,2080,rob ver 1B,2013-07-30 00:51:00,
2013-07-29 17:52:00,104.1,41.6,29.35,South,173,14.4,17.2,12,-99.99,,,0.00,2051,rob ver 1B,2013-07-30 00:52:00,
2013-07-29 17:53:00,104.0,41.6,29.35,SSE,167,14.3,16.5,12,-99.99,,,0.00,2020,rob ver 1B,2013-07-30 00:53:00,
2013-07-29 17:54:00,104.0,41.6,29.35,South,174,13.8,16.4,12,-99.99,,,0.00,1995,rob ver 1B,2013-07-30 00:54:00,
2013-07-29 17:55:00,104.1,41.6,29.35,South,177,12.3,17.3,12,-99.99,,,0.00,1967,rob ver 1B,2013-07-30 00:55:00,
2013-07-29 17:56:00,104.2,41.7,29.35,SSE,166,14.5,17.2,12,-99.99,,,0.00,1938,rob ver 1B,2013-07-30 00:56:00,
2013-07-29 17:57:00,104.4,41.8,29.35,South,179,13.8,16.8,12,-99.99,,,0.00,1909,rob ver 1B,2013-07-30 00:57:00,
2013-07-29 17:58:00,104.5,42.1,29.35,South,171,14.7,19.1,12,-99.99,,,0.00,1891,rob ver 1B,2013-07-30 00:58:00,
2013-07-29 17:59:00,104.4,42.3,29.35,South,174,15.8,19.2,12,-99.99,,,0.00,1866,rob ver 1B,2013-07-30 00:59:00,
2013-07-29 18:00:00,104.1,42.3,29.35,SSE,166,16.1,18.9,12,-99.99,,,0.00,1846,rob ver 1B,2013-07-30 01:00:00,
2013-07-29 18:01:00,103.9,42.4,29.35,South,174,14.2,17.3,12,-99.99,,,0.00,1816,rob ver 1B,2013-07-30 01:01:00,
2013-07-29 18:02:00,103.9,42.4,29.35,South,172,15.1,17.6,12,-99.99,,,0.00,1790,rob ver 1B,2013-07-30 01:02:00,
2013-07-29 18:03:00,103.9,42.2,29.35,SSE,164,14.2,18.0,12,-99.99,,,0.00,1764,rob ver 1B,2013-07-30 01:03:00,
2013-07-29 18:04:00,103.9,42.2,29.35,South,169,11.7,13.5,12,-99.99,,,0.00,1736,rob ver 1B,2013-07-30 01:04:00,
2013-07-29 18:05:00,104.1,42.1,29.35,SSE,168,12.5,15.6,12,-99.99,,,0.00,1712,rob ver 1B,2013-07-30 01:05:00,
2013-07-29 18:06:00,104.4,42.0,29.35,South,176,14.7,18.5,12,-99.99,,,0.00,1695,rob ver 1B,2013-07-30 01:06:00,
2013-07-29 18:07:00,104.2,42.1,29.35,South,177,14.6,18.1,12,-99.99,,,0.00,1668,rob ver 1B,2013-07-30 01:07:00,
2013-07-29 18:08:00,104.1,42.1,29.35,South,179,13.6,18.5,12,-99.99,,,0.00,1644,rob ver 1B,2013-07-30 01:08:00,
2013-07-29 18:09:00,104.0,42.2,29.35,South,174,12.9,15.5,12,-99.99,,,0.00,1628,rob ver 1B,2013-07-30 01:09:00,
2013-07-29 18:10:00,104.0,42.2,29.35,South,176,12.4,16.2,12,-99.99,,,0.00,1600,rob ver 1B,2013-07-30 01:10:00,
2013-07-29 18:11:00,104.0,42.0,29.35,South,176,12.8,15.6,12,-99.99,,,0.00,1575,rob ver 1B,2013-07-30 01:11:00,
2013-07-29 18:12:00,103.9,41.8,29.35,South,170,11.6,14.5,12,-99.99,,,0.00,1548,rob ver 1B,2013-07-30 01:12:00,
2013-07-29 18:13:00,103.8,42.2,29.35,SSE,166,12.8,17.6,12,-99.99,,,0.00,1525,rob ver 1B,2013-07-30 01:13:00,
2013-07-29 18:14:00,103.7,42.3,29.35,South,171,13.7,17.0,12,-99.99,,,0.00,1506,rob ver 1B,2013-07-30 01:14:00,
2013-07-29 18:15:00,103.7,42.3,29.35,South,180,12.9,16.7,12,-99.99,,,0.00,1486,rob ver 1B,2013-07-30 01:15:00,
2013-07-29 18:16:00,103.7,42.2,29.35,South,179,16.0,20.2,12,-99.99,,,0.00,1464,rob ver 1B,2013-07-30 01:16:00,
2013-07-29 18:17:00,103.6,41.8,29.35,SSE,163,15.4,17.5,12,-99.99,,,0.00,1441,rob ver 1B,2013-07-30 01:17:00,
2013-07-29 18:18:00,103.4,42.1,29.35,South,172,13.3,16.8,12,-99.99,,,0.00,1419,rob ver 1B,2013-07-30 01:18:00,
2013-07-29 18:19:00,103.5,42.0,29.35,South,178,14.7,17.1,12,-99.99,,,0.00,1398,rob ver 1B,2013-07-30 01:19:00,
2013-07-29 18:20:00,103.4,42.0,29.35,South,170,16.5,19.8,12,-99.99,,,0.00,1372,rob ver 1B,2013-07-30 01:20:00,
2013-07-29 18:21:00,103.4,41.9,29.35,South,183,15.1,18.6,12,-99.99,,,0.00,1346,rob ver 1B,2013-07-30 01:21:00,
2013-07-29 18:22:00,103.3,41.9,29.35,South,180,16.2,20.0,12,-99.99,,,0.00,1322,rob ver 1B,2013-07-30 01:22:00,
2013-07-29 18:23:00,103.3,42.1,29.35,South,174,14.5,17.4,12,-99.99,,,0.00,1299,rob ver 1B,2013-07-30 01:23:00,
2013-07-29 18:24:00,103.5,42.1,29.35,South,182,15.7,19.3,12,-99.99,,,0.00,1275,rob ver 1B,2013-07-30 01:24:00,
2013-07-29 18:25:00,103.4,41.9,29.35,South,175,15.6,20.1,12,-99.99,,,0.00,1251,rob ver 1B,2013-07-30 01:25:00,
2013-07-29 18:26:00,103.3,41.9,29.35,South,172,12.4,15.1,12,-99.99,,,0.00,1229,rob ver 1B,2013-07-30 01:26:00,
2013-07-29 18:27:00,103.3,41.7,29.35,South,172,15.3,18.9,12,-99.99,,,0.00,1208,rob ver 1B,2013-07-30 01:27:00,
2013-07-29 18:28:00,103.2,41.6,29.35,South,170,14.3,17.5,12,-99.99,,,0.00,1188,rob ver 1B,2013-07-30 01:28:00,
2013-07-29 18:29:00,103.0,41.5,29.35,South,171,14.4,17.4,12,-99.99,,,0.00,1166,rob ver 1B,2013-07-30 01:29:00,
2013-07-29 18:30:00,103.0,41.4,29.35,South,177,14.5,16.4,12,-99.99,,,0.00,1148,rob ver 1B,2013-07-30 01:30:00,
2013-07-29 18:31:00,103.0,41.3,29.35,South,174,13.7,17.0,12,-99.99,,,0.00,1122,rob ver 1B,2013-07-30 01:31:00,
2013-07-29 18:32:00,103.0,41.2,29.35,South,183,12.3,15.9,12,-99.99,,,0.00,1099,rob ver 1B,2013-07-30 01:32:00,
2013-07-29 18:33:00,103.0,41.9,29.35,South,187,15.0,18.4,12,-99.99,,,0.00,1083,rob ver 1B,2013-07-30 01:33:00,
2013-07-29 18:34:00,102.9,42.0,29.35,South,183,14.2,16.9,12,-99.99,,,0.00,1061,rob ver 1B,2013-07-30 01:34:00,
2013-07-29 18:35:00,102.8,41.9,29.35,South,177,14.5,17.0,12,-99.99,,,0.00,1041,rob ver 1B,2013-07-30 01:35:00,
2013-07-29 18:36:00,102.8,41.9,29.35,South,173,14.7,17.1,12,-99.99,,,0.00,1022,rob ver 1B,2013-07-30 01:36:00,
2013-07-29 18:37:00,102.8,41.8,29.35,SSE,166,12.2,15.3,12,-99.99,,,0.00,1004,rob ver 1B,2013-07-30 01:37:00,
2013-07-29 18:38:00,102.9,41.8,29.35,SSE,166,12.9,16.4,12,-99.99,,,0.00,983,rob ver 1B,2013-07-30 01:38:00,
2013-07-29 18:39:00,102.9,41.7,29.35,SSE,168,14.5,17.8,12,-99.99,,,0.00,960,rob ver 1B,2013-07-30 01:39:00,
2013-07-29 18:40:00,102.9,41.7,29.35,SSE,168,15.4,18.5,12,-99.99,,,0.00,939,rob ver 1B,2013-07-30 01:40:00,
2013-07-29 18:41:00,102.8,41.8,29.35,SSE,168,14.0,16.8,12,-99.99,,,0.00,918,rob ver 1B,2013-07-30 01:41:00,
2013-07-29 18:42:00,102.9,41.8,29.35,South,175,13.6,17.4,12,-99.99,,,0.00,901,rob ver 1B,2013-07-30 01:42:00,
2013-07-29 18:43:00,102.9,42.0,29.35,SSE,162,13.4,15.5,12,-99.99,,,0.00,881,rob ver 1B,2013-07-30 01:43:00,
2013-07-29 18:44:00,102.8,42.3,29.35,SSE,165,13.9,17.4,12,-99.99,,,0.00,859,rob ver 1B,2013-07-30 01:44:00,
2013-07-29 18:45:00,102.7,42.4,29.35,SSE,154,13.0,16.8,12,-99.99,,,0.00,838,rob ver 1B,2013-07-30 01:45:00,
2013-07-29 18:46:00,102.7,42.7,29.35,SSE,160,14.7,18.3,13,-99.99,,,0.00,816,rob ver 1B,2013-07-30 01:46:00,
2013-07-29 18:47:00,102.5,42.8,29.35,SSE,166,12.8,15.8,13,-99.99,,,0.00,794,rob ver 1B,2013-07-30 01:47:00,
2013-07-29 18:48:00,102.5,42.8,29.35,South,169,12.5,16.7,13,-99.99,,,0.00,773,rob ver 1B,2013-07-30 01:48:00,
2013-07-29 18:49:00,102.5,42.7,29.35,SSE,160,15.5,18.3,13,-99.99,,,0.00,756,rob ver 1B,2013-07-30 01:49:00,
2013-07-29 18:50:00,102.4,42.8,29.35,South,170,12.6,16.1,13,-99.99,,,0.00,738,rob ver 1B,2013-07-30 01:50:00,
2013-07-29 18:51:00,102.4,42.8,29.35,SSE,160,13.7,16.7,13,-99.99,,,0.00,718,rob ver 1B,2013-07-30 01:51:00,
2013-07-29 18:52:00,102.3,42.7,29.35,SSE,162,11.6,14.7,13,-99.99,,,0.00,696.2,rob ver 1B,2013-07-30 01:52:00,
2013-07-29 18:53:00,102.5,42.7,29.35,SSE,163,11.8,14.6,13,-99.99,,,0.00,677.9,rob ver 1B,2013-07-30 01:53:00,
2013-07-29 18:54:00,102.5,42.3,29.35,SSE,158,13.1,16.6,13,-99.99,,,0.00,660.1,rob ver 1B,2013-07-30 01:54:00,
2013-07-29 18:55:00,102.3,42.2,29.35,SSE,162,12.3,15.3,13,-99.99,,,0.00,643.3,rob ver 1B,2013-07-30 01:55:00,
2013-07-29 18:56:00,102.2,42.0,29.35,SSE,158,12.8,17.4,13,-99.99,,,0.00,626.1,rob ver 1B,2013-07-30 01:56:00,
2013-07-29 18:57:00,102.1,41.7,29.35,South,171,14.9,18.1,12,-99.99,,,0.00,607.3,rob ver 1B,2013-07-30 01:57:00,
2013-07-29 18:58:00,102.0,41.6,29.35,SSE,164,13.7,18.7,12,-99.99,,,0.00,587.2,rob ver 1B,2013-07-30 01:58:00,
2013-07-29 18:59:00,102.0,41.7,29.35,SSE,158,12.5,15.8,12,-99.99,,,0.00,569.4,rob ver 1B,2013-07-30 01:59:00,
2013-07-29 19:00:00,102.0,41.8,29.35,SSE,162,12.3,15.7,12,-99.99,,,0.00,552.9,rob ver 1B,2013-07-30 02:00:00,
2013-07-29 19:01:00,101.9,41.7,29.35,SSE,165,13.7,16.2,12,-99.99,,,0.00,537.1,rob ver 1B,2013-07-30 02:01:00,
2013-07-29 19:02:00,101.9,41.6,29.35,SSE,161,11.7,14.0,12,-99.99,,,0.00,520.8,rob ver 1B,2013-07-30 02:02:00,
2013-07-29 19:03:00,101.9,41.3,29.35,SSE,161,13.3,16.2,12,-99.99,,,0.00,505.3,rob ver 1B,2013-07-30 02:03:00,
2013-07-29 19:04:00,101.7,41.3,29.35,SSE,166,13.5,17.6,12,-99.99,,,0.00,487.7,rob ver 1B,2013-07-30 02:04:00,
2013-07-29 19:05:00,101.7,41.4,29.35,SSE,162,11.8,15.4,12,-99.99,,,0.00,469.9,rob ver 1B,2013-07-30 02:05:00,
2013-07-29 19:06:00,101.6,41.4,29.35,South,169,13.6,16.7,12,-99.99,,,0.00,451.4,rob ver 1B,2013-07-30 02:06:00,
2013-07-29 19:07:00,101.5,41.4,29.35,SSE,164,11.8,14.0,12,-99.99,,,0.00,432.3,rob ver 1B,2013-07-30 02:07:00,
2013-07-29 19:08:00,101.5,41.5,29.35,SSE,166,11.9,14.2,12,-99.99,,,0.00,418.5,rob ver 1B,2013-07-30 02:08:00,
2013-07-29 19:09:00,101.4,41.6,29.35,SSE,166,13.7,16.4,13,-99.99,,,0.00,405,rob ver 1B,2013-07-30 02:09:00,
2013-07-29 19:10:00,101.3,41.6,29.35,South,169,13.8,16.8,13,-99.99,,,0.00,389.5,rob ver 1B,2013-07-30 02:10:00,
2013-07-29 19:11:00,101.3,41.8,29.35,SSE,167,11.9,14.7,13,-99.99,,,0.00,373.8,rob ver 1B,2013-07-30 02:11:00,
2013-07-29 19:12:00,101.2,41.8,29.35,SSE,167,12.6,15.2,13,-99.99,,,0.00,357.8,rob ver 1B,2013-07-30 02:12:00,
2013-07-29 19:13:00,101.2,41.8,29.35,South,172,12.9,15.4,13,-99.99,,,0.00,340.1,rob ver 1B,2013-07-30 02:13:00,
2013-07-29 19:14:00,101.1,41.8,29.35,SSE,168,13.5,15.4,13,-99.99,,,0.00,326.9,rob ver 1B,2013-07-30 02:14:00,
2013-07-29 19:15:00,101.0,41.7,29.35,South,172,12.4,15.4,13,-99.99,,,0.00,317.1,rob ver 1B,2013-07-30 02:15:00,
2013-07-29 19:16:00,101.0,41.6,29.35,SSE,167,11.7,13.4,13,-99.99,,,0.00,305.8,rob ver 1B,2013-07-30 02:16:00,
2013-07-29 19:17:00,101.0,41.6,29.35,SSE,165,11.8,15.5,13,-99.99,,,0.00,295.2,rob ver 1B,2013-07-30 02:17:00,
2013-07-29 19:18:00,100.9,41.6,29.35,South,170,13.0,16.2,13,-99.99,,,0.00,282.1,rob ver 1B,2013-07-30 02:18:00,
2013-07-29 19:19:00,100.8,41.5,29.35,South,169,14.4,17.8,13,-99.99,,,0.00,265.6,rob ver 1B,2013-07-30 02:19:00,
2013-07-29 19:20:00,100.7,41.5,29.35,South,171,14.7,16.9,13,-99.99,,,0.00,247.5,rob ver 1B,2013-07-30 02:20:00,
2013-07-29 19:21:00,100.6,41.4,29.35,South,169,13.9,16.2,13,-99.99,,,0.00,229.3,rob ver 1B,2013-07-30 02:21:00,
2013-07-29 19:22:00,100.6,41.4,29.35,SSE,168,11.9,14.3,13,-99.99,,,0.00,208.9,rob ver 1B,2013-07-30 02:22:00,
2013-07-29 19:23:00,100.6,41.4,29.35,SSE,162,11.7,13.6,13,-99.99,,,0.00,193.1,rob ver 1B,2013-07-30 02:23:00,
2013-07-29 19:24:00,100.5,41.4,29.35,SSE,164,12.0,14.9,13,-99.99,,,0.00,185.2,rob ver 1B,2013-07-30 02:24:00,
2013-07-29 19:25:00,100.5,41.4,29.35,South,169,12.3,15.7,13,-99.99,,,0.00,176.6,rob ver 1B,2013-07-30 02:25:00,
2013-07-29 19:26:00,100.4,41.4,29.38,South,174,12.2,14.9,13,-99.99,,,0.00,168.9,rob ver 1B,2013-07-30 02:26:00,
2013-07-29 19:27:00,100.3,41.5,29.38,South,171,11.3,14.6,13,-99.99,,,0.00,162.4,rob ver 1B,2013-07-30 02:27:00,
2013-07-29 19:28:00,100.3,41.5,29.35,SSE,162,13.3,15.3,13,-99.99,,,0.00,152.2,rob ver 1B,2013-07-30 02:28:00,
2013-07-29 19:29:00,100.2,41.5,29.35,SSE,165,12.3,14.8,13,-99.99,,,0.00,139.1,rob ver 1B,2013-07-30 02:29:00,
2013-07-29 19:30:00,100.1,41.5,29.38,South,170,11.0,13.2,13,-99.99,,,0.00,123.9,rob ver 1B,2013-07-30 02:30:00,
2013-07-29 19:31:00,100.0,41.4,29.38,South,169,11.4,14.3,13,-99.99,,,0.00,109.4,rob ver 1B,2013-07-30 02:31:00,
2013-07-29 19:32:00,100.0,41.3,29.38,South,169,11.5,13.8,13,-99.99,,,0.00,94.9,rob ver 1B,2013-07-30 02:32:00,
2013-07-29 19:33:00,99.9,41.0,29.35,South,169,11.9,14.3,13,-99.99,,,0.00,81.7,rob ver 1B,2013-07-30 02:33:00,
2013-07-29 19:34:00,99.8,40.9,29.35,SSE,167,11.6,14.2,13,-99.99,,,0.00,70.5,rob ver 1B,2013-07-30 02:34:00,
2013-07-29 19:35:00,99.7,40.8,29.38,South,169,11.0,14.0,13,-99.99,,,0.00,61.78,rob ver 1B,2013-07-30 02:35:00,
2013-07-29 19:36:00,99.7,40.8,29.38,SSE,168,12.3,14.4,13,-99.99,,,0.00,53.87,rob ver 1B,2013-07-30 02:36:00,
2013-07-29 19:37:00,99.6,40.8,29.38,South,170,13.1,15.2,13,-99.99,,,0.00,48.11,rob ver 1B,2013-07-30 02:37:00,
2013-07-29 19:38:00,99.5,41.0,29.38,SSE,168,13.3,16.2,13,-99.99,,,0.00,43.82,rob ver 1B,2013-07-30 02:38:00,
2013-07-29 19:39:00,99.4,41.1,29.35,South,171,14.0,16.3,13,-99.99,,,0.00,39.87,rob ver 1B,2013-07-30 02:39:00,
2013-07-29 19:40:00,99.3,41.2,29.38,SSE,168,12.7,14.8,13,-99.99,,,0.00,36.41,rob ver 1B,2013-07-30 02:40:00,
2013-07-29 19:41:00,99.3,41.2,29.38,SSE,165,11.3,13.6,13,-99.99,,,0.00,33.94,rob ver 1B,2013-07-30 02:41:00,
2013-07-29 19:42:00,99.2,41.3,29.38,SSE,168,10.8,12.9,13,-99.99,,,0.00,31.3,rob ver 1B,2013-07-30 02:42:00,
2013-07-29 19:43:00,99.2,41.3,29.38,SSE,165,10.6,13.6,13,-99.99,,,0.00,29,rob ver 1B,2013-07-30 02:43:00,
2013-07-29 19:44:00,99.1,41.3,29.38,South,170,11.2,14.2,13,-99.99,,,0.00,26.36,rob ver 1B,2013-07-30 02:44:00,
2013-07-29 19:45:00,99.1,41.3,29.38,SSE,166,11.4,14.6,13,-99.99,,,0.00,24.55,rob ver 1B,2013-07-30 02:45:00,
2013-07-29 19:46:00,99.0,41.3,29.38,SSE,168,10.9,12.8,13,-99.99,,,0.00,22.41,rob ver 1B,2013-07-30 02:46:00,
2013-07-29 19:47:00,99.0,41.4,29.38,South,170,12.1,14.9,13,-99.99,,,0.00,20.43,rob ver 1B,2013-07-30 02:47:00,
2013-07-29 19:48:00,98.9,41.5,29.38,South,169,11.5,13.7,13,-99.99,,,0.00,18.45,rob ver 1B,2013-07-30 02:48:00,
2013-07-29 19:49:00,98.9,41.5,29.38,South,170,12.0,15.1,14,-99.99,,,0.00,16.8,rob ver 1B,2013-07-30 02:49:00,
2013-07-29 19:50:00,98.9,41.4,29.38,SSE,165,12.2,14.7,13,-99.99,,,0.00,14.83,rob ver 1B,2013-07-30 02:50:00,
2013-07-29 19:51:00,98.9,41.5,29.38,South,169,10.0,12.7,14,-99.99,,,0.00,12.85,rob ver 1B,2013-07-30 02:51:00,
2013-07-29 19:52:00,98.8,41.5,29.38,South,171,10.5,12.7,14,-99.99,,,0.00,11.2,rob ver 1B,2013-07-30 02:52:00,
2013-07-29 19:53:00,98.7,41.5,29.38,SSE,168,10.2,11.7,14,-99.99,,,0.00,9.56,rob ver 1B,2013-07-30 02:53:00,
2013-07-29 19:54:00,98.7,41.6,29.38,South,172,9.2,11.4,14,-99.99,,,0.00,7.58,rob ver 1B,2013-07-30 02:54:00,
2013-07-29 19:55:00,98.6,41.7,29.38,South,175,9.4,11.5,14,-99.99,,,0.00,5.602,rob ver 1B,2013-07-30 02:55:00,
2013-07-29 19:56:00,98.5,41.8,29.38,South,172,9.8,11.6,14,-99.99,,,0.00,4.448,rob ver 1B,2013-07-30 02:56:00,
2013-07-29 19:57:00,98.5,41.8,29.38,South,173,8.9,10.5,14,-99.99,,,0.00,3.295,rob ver 1B,2013-07-30 02:57:00,
2013-07-29 19:58:00,98.4,41.8,29.38,South,174,8.0,9.4,14,-99.99,,,0.00,2.636,rob ver 1B,2013-07-30 02:58:00,
2013-07-29 19:59:00,98.4,41.9,29.38,South,173,8.4,10.4,14,-99.99,,,0.00,1.977,rob ver 1B,2013-07-30 02:59:00,
2013-07-29 20:00:00,98.3,42.1,29.38,South,177,9.5,12.4,14,-99.99,,,0.00,1.318,rob ver 1B,2013-07-30 03:00:00,
2013-07-29 20:01:00,98.3,42.1,29.38,South,174,10.2,12.1,14,-99.99,,,0.00,1.318,rob ver 1B,2013-07-30 03:01:00,
2013-07-29 20:02:00,98.3,42.1,29.38,South,170,10.9,12.4,14,-99.99,,,0.00,.659,rob ver 1B,2013-07-30 03:02:00,
2013-07-29 20:03:00,98.3,42.1,29.38,South,173,9.0,10.6,14,-99.99,,,0.00,.659,rob ver 1B,2013-07-30 03:03:00,
2013-07-29 20:04:00,98.2,42.2,29.38,South,179,9.0,12.4,14,-99.99,,,0.00,.659,rob ver 1B,2013-07-30 03:04:00,
2013-07-29 20:05:00,98.2,42.2,29.38,South,178,9.8,12.0,14,-99.99,,,0.00,.33,rob ver 1B,2013-07-30 03:05:00,
2013-07-29 20:06:00,98.2,42.3,29.38,South,181,12.2,14.7,14,-99.99,,,0.00,.165,rob ver 1B,2013-07-30 03:06:00,
2013-07-29 20:07:00,98.1,42.3,29.38,South,178,11.5,13.7,14,-99.99,,,0.00,0,rob ver 1B,2013-07-30 03:07:00,
2013-07-29 20:08:00,98.1,42.3,29.38,South,175,10.4,11.9,14,-99.99,,,0.00,0,rob ver 1B,2013-07-30 03:08:00,
2013-07-29 20:09:00,98.0,42.4,29.38,South,177,11.2,13.2,14,-99.99,,,0.00,0,rob ver 1B,2013-07-30 03:09:00,
2013-07-29 20:10:00,97.9,42.5,29.38,South,179,10.1,12.3,15,-99.99,,,0.00,0,rob ver 1B,2013-07-30 03:10:00,
2013-07-29 20:11:00,97.8,42.6,29.38,South,175,10.8,12.5,15,-99.99,,,0.00,0,rob ver 1B,2013-07-30 03:11:00,
2013-07-29 20:12:00,97.8,42.7,29.38,South,181,12.0,14.7,15,-99.99,,,0.00,0,rob ver 1B,2013-07-30 03:12:00,
2013-07-29 20:13:00,97.7,42.8,29.38,South,178,11.8,14.4,15,-99.99,,,0.00,0,rob ver 1B,2013-07-30 03:13:00,
2013-07-29 20:14:00,97.6,42.8,29.38,South,178,10.6,12.9,15,-99.99,,,0.00,0,rob ver 1B,2013-07-30 03:14:00,
2013-07-29 20:15:00,97.5,42.8,29.38,South,177,10.4,12.8,15,-99.99,,,0.00,0,rob ver 1B,2013-07-30 03:15:00,
2013-07-29 20:16:00,97.5,42.8,29.38,South,178,10.0,12.1,15,-99.99,,,0.00,0,rob ver 1B,2013-07-30 03:16:00,
2013-07-29 20:17:00,97.4,42.8,29.38,South,175,11.7,13.7,15,-99.99,,,0.00,0,rob ver 1B,2013-07-30 03:17:00,
2013-07-29 20:18:00,97.4,42.8,29.38,South,182,10.9,13.2,15,-99.99,,,0.00,0,rob ver 1B,2013-07-30 03:18:00,
2013-07-29 20:19:00,97.3,42.8,29.38,South,177,12.2,15.9,15,-99.99,,,0.00,0,rob ver 1B,2013-07-30 03:19:00,
2013-07-29 20:20:00,97.3,42.7,29.38,South,181,12.4,16.0,15,-99.99,,,0.00,0,rob ver 1B,2013-07-30 03:20:00,
2013-07-29 20:21:00,97.3,42.8,29.38,South,180,11.8,15.2,15,-99.99,,,0.00,0,rob ver 1B,2013-07-30 03:21:00,
2013-07-29 20:22:00,97.2,42.9,29.38,South,183,9.7,11.7,15,-99.99,,,0.00,0,rob ver 1B,2013-07-30 03:22:00,
2013-07-29 20:23:00,97.2,43.0,29.38,South,182,11.1,14.1,15,-99.99,,,0.00,0,rob ver 1B,2013-07-30 03:23:00,
2013-07-29 20:24:00,97.1,43.1,29.38,South,178,12.1,14.6,15,-99.99,,,0.00,0,rob ver 1B,2013-07-30 03:24:00,
2013-07-29 20:25:00,97.1,43.3,29.38,South,182,10.5,12.9,15,-99.99,,,0.00,0,rob ver 1B,2013-07-30 03:25:00,
2013-07-29 20:26:00,97.0,43.4,29.38,South,179,8.5,11.3,16,-99.99,,,0.00,0,rob ver 1B,2013-07-30 03:26:00,
2013-07-29 20:27:00,97.0,43.5,29.38,South,179,9.6,11.5,16,-99.99,,,0.00,0,rob ver 1B,2013-07-30 03:27:00,
2013-07-29 20:28:00,96.9,43.4,29.38,South,176,9.4,11.6,15,-99.99,,,0.00,0,rob ver 1B,2013-07-30 03:28:00,
2013-07-29 20:29:00,96.9,43.2,29.38,South,177,10.5,12.7,15,-99.99,,,0.00,0,rob ver 1B,2013-07-30 03:29:00,
2013-07-29 20:30:00,96.8,43.2,29.38,South,182,9.6,11.2,16,-99.99,,,0.00,0,rob ver 1B,2013-07-30 03:30:00,
2013-07-29 20:31:00,96.8,43.2,29.38,South,180,10.7,12.7,15,-99.99,,,0.00,0,rob ver 1B,2013-07-30 03:31:00,
2013-07-29 20:32:00,96.7,43.2,29.38,South,183,10.1,12.2,16,-99.99,,,0.00,0,rob ver 1B,2013-07-30 03:32:00,
2013-07-29 20:33:00,96.7,43.3,29.38,South,183,10.2,13.7,15,-99.99,,,0.00,0,rob ver 1B,2013-07-30 03:33:00,
2013-07-29 20:34:00,96.7,43.4,29.38,South,185,8.4,10.1,16,-99.99,,,0.00,0,rob ver 1B,2013-07-30 03:34:00,
2013-07-29 20:35:00,96.6,43.2,29.38,South,185,11.0,14.5,15,-99.99,,,0.00,0,rob ver 1B,2013-07-30 03:35:00,
2013-07-29 20:36:00,96.6,42.9,29.38,South,184,11.1,14.5,16,-99.99,,,0.00,0,rob ver 1B,2013-07-30 03:36:00,
2013-07-29 20:37:00,96.6,43.1,29.38,South,183,8.9,10.3,16,-99.99,,,0.00,0,rob ver 1B,2013-07-30 03:37:00,
2013-07-29 20:38:00,96.5,43.3,29.38,South,183,8.7,11.7,16,-99.99,,,0.00,0,rob ver 1B,2013-07-30 03:38:00,
2013-07-29 20:39:00,96.5,43.4,29.38,South,180,9.4,12.3,16,-99.99,,,0.00,0,rob ver 1B,2013-07-30 03:39:00,
2013-07-29 20:40:00,96.4,43.4,29.38,South,185,9.9,12.1,16,-99.99,,,0.00,0,rob ver 1B,2013-07-30 03:40:00,
2013-07-29 20:41:00,96.4,43.6,29.38,South,186,9.4,12.3,16,-99.99,,,0.00,0,rob ver 1B,2013-07-30 03:41:00,
2013-07-29 20:42:00,96.4,43.7,29.38,South,183,10.3,15.1,16,-99.99,,,0.00,0,rob ver 1B,2013-07-30 03:42:00,
2013-07-29 20:43:00,96.3,43.8,29.38,South,183,10.5,13.3,16,-99.99,,,0.00,0,rob ver 1B,2013-07-30 03:43:00,
2013-07-29 20:44:00,96.3,43.9,29.38,South,188,9.5,11.8,16,-99.99,,,0.00,0,rob ver 1B,2013-07-30 03:44:00,
2013-07-29 20:45:00,96.2,44.0,29.38,South,185,9.2,11.8,16,-99.99,,,0.00,0,rob ver 1B,2013-07-30 03:45:00,
2013-07-29 20:46:00,96.2,44.0,29.38,South,186,10.0,12.4,16,-99.99,,,0.00,0,rob ver 1B,2013-07-30 03:46:00,
2013-07-29 20:47:00,96.2,43.9,29.38,South,189,10.0,12.9,16,-99.99,,,0.00,0,rob ver 1B,2013-07-30 03:47:00,
2013-07-29 20:48:00,96.2,43.9,29.38,South,187,9.2,11.5,16,-99.99,,,0.00,0,rob ver 1B,2013-07-30 03:48:00,
2013-07-29 20:49:00,96.1,44.0,29.38,South,184,7.9,9.6,16,-99.99,,,0.00,0,rob ver 1B,2013-07-30 03:49:00,
2013-07-29 20:50:00,96.1,43.9,29.38,South,185,9.0,11.8,16,-99.99,,,0.00,0,rob ver 1B,2013-07-30 03:50:00,
2013-07-29 20:51:00,96.0,43.8,29.38,South,184,10.8,14.8,16,-99.99,,,0.00,0,rob ver 1B,2013-07-30 03:51:00,
2013-07-29 20:52:00,96.0,43.7,29.38,South,180,12.1,14.6,16,-99.99,,,0.00,0,rob ver 1B,2013-07-30 03:52:00,
2013-07-29 20:53:00,96.0,43.7,29.38,South,182,11.1,13.0,16,-99.99,,,0.00,0,rob ver 1B,2013-07-30 03:53:00,
2013-07-29 20:54:00,96.0,43.7,29.38,South,184,11.2,13.9,16,-99.99,,,0.00,0,rob ver 1B,2013-07-30 03:54:00,
2013-07-29 20:55:00,95.9,43.7,29.38,South,183,10.3,13.1,16,-99.99,,,0.00,0,rob ver 1B,2013-07-30 03:55:00,
2013-07-29 20:56:00,95.9,43.9,29.38,South,189,8.8,11.1,16,-99.99,,,0.00,0,rob ver 1B,2013-07-30 03:56:00,
2013-07-29 20:57:00,95.8,44.0,29.38,South,183,9.9,13.5,17,-99.99,,,0.00,0,rob ver 1B,2013-07-30 03:57:00,
2013-07-29 20:58:00,95.8,44.1,29.38,South,187,10.1,12.9,17,-99.99,,,0.00,0,rob ver 1B,2013-07-30 03:58:00,
2013-07-29 20:59:00,95.7,44.1,29.38,South,182,8.0,9.8,17,-99.99,,,0.00,0,rob ver 1B,2013-07-30 03:59:00,
2013-07-29 21:00:00,95.6,44.2,29.38,South,176,9.4,12.1,17,-99.99,,,0.00,0,rob ver 1B,2013-07-30 04:00:00,
2013-07-29 21:01:00,95.6,44.3,29.38,South,185,10.2,12.3,17,-99.99,,,0.00,0,rob ver 1B,2013-07-30 04:01:00,
2013-07-29 21:02:00,95.6,44.4,29.38,South,179,8.6,11.0,17,-99.99,,,0.00,0,rob ver 1B,2013-07-30 04:02:00,
2013-07-29 21:03:00,95.5,44.4,29.41,South,176,8.4,10.5,17,-99.99,,,0.00,0,rob ver 1B,2013-07-30 04:03:00,
2013-07-29 21:04:00,95.4,44.5,29.38,South,180,11.2,13.0,17,-99.99,,,0.00,0,rob ver 1B,2013-07-30 04:04:00,
2013-07-29 21:05:00,95.4,44.7,29.38,South,180,10.8,14.7,17,-99.99,,,0.00,0,rob ver 1B,2013-07-30 04:05:00,
2013-07-29 21:06:00,95.3,44.8,29.38,South,179,10.8,13.0,17,-99.99,,,0.00,0,rob ver 1B,2013-07-30 04:06:00,
2013-07-29 21:07:00,95.3,44.9,29.41,South,178,11.0,13.8,17,-99.99,,,0.00,0,rob ver 1B,2013-07-30 04:07:00,
2013-07-29 21:08:00,95.2,45.0,29.38,South,179,10.8,13.6,17,-99.99,,,0.00,0,rob ver 1B,2013-07-30 04:08:00,
2013-07-29 21:09:00,95.2,45.1,29.38,South,180,9.9,12.5,18,-99.99,,,0.00,0,rob ver 1B,2013-07-30 04:09:00,
2013-07-29 21:10:00,95.1,45.3,29.38,South,178,10.9,14.2,18,-99.99,,,0.00,0,rob ver 1B,2013-07-30 04:10:00,
2013-07-29 21:11:00,95.0,45.4,29.38,South,180,12.7,16.4,18,-99.99,,,0.00,0,rob ver 1B,2013-07-30 04:11:00,
2013-07-29 21:12:00,95.0,45.5,29.41,South,180,12.0,14.6,18,-99.99,,,0.00,0,rob ver 1B,2013-07-30 04:12:00,
2013-07-29 21:13:00,95.0,45.5,29.41,South,175,10.8,12.6,18,-99.99,,,0.00,0,rob ver 1B,2013-07-30 04:13:00,
2013-07-29 21:14:00,94.9,45.5,29.41,South,174,9.6,12.1,18,-99.99,,,0.00,0,rob ver 1B,2013-07-30 04:14:00,
2013-07-29 21:15:00,94.8,45.7,29.38,South,178,10.0,12.6,18,-99.99,,,0.00,0,rob ver 1B,2013-07-30 04:15:00,
2013-07-29 21:16:00,94.8,46.0,29.41,South,175,11.5,14.0,18,-99.99,,,0.00,0,rob ver 1B,2013-07-30 04:16:00,
2013-07-29 21:17:00,94.7,46.1,29.41,South,181,11.9,16.0,19,-99.99,,,0.00,0,rob ver 1B,2013-07-30 04:17:00,
2013-07-29 21:18:00,94.6,46.3,29.41,South,176,12.7,14.6,19,-99.99,,,0.00,0,rob ver 1B,2013-07-30 04:18:00,
2013-07-29 21:19:00,94.6,46.4,29.41,South,177,12.3,14.4,19,-99.99,,,0.00,0,rob ver 1B,2013-07-30 04:19:00,
2013-07-29 21:20:00,94.5,46.4,29.41,South,176,12.5,14.9,19,-99.99,,,0.00,0,rob ver 1B,2013-07-30 04:20:00,
2013-07-29 21:21:00,94.5,46.4,29.41,South,177,10.9,13.7,19,-99.99,,,0.00,0,rob ver 1B,2013-07-30 04:21:00,
2013-07-29 21:22:00,94.4,46.5,29.41,South,175,10.2,11.9,19,-99.99,,,0.00,0,rob ver 1B,2013-07-30 04:22:00,
2013-07-29 21:23:00,94.3,46.5,29.41,South,172,10.5,13.5,19,-99.99,,,0.00,0,rob ver 1B,2013-07-30 04:23:00,
2013-07-29 21:24:00,94.3,46.5,29.41,South,178,11.7,14.3,19,-99.99,,,0.00,0,rob ver 1B,2013-07-30 04:24:00,
2013-07-29 21:25:00,94.2,46.6,29.41,South,173,11.0,13.6,19,-99.99,,,0.00,0,rob ver 1B,2013-07-30 04:25:00,
2013-07-29 21:26:00,94.2,46.6,29.41,South,174,10.1,12.1,19,-99.99,,,0.00,0,rob ver 1B,2013-07-30 04:26:00,
2013-07-29 21:27:00,94.1,46.7,29.41,South,175,12.2,16.2,19,-99.99,,,0.00,0,rob ver 1B,2013-07-30 04:27:00,
2013-07-29 21:28:00,94.1,46.8,29.41,South,177,10.4,12.9,19,-99.99,,,0.00,0,rob ver 1B,2013-07-30 04:28:00,
2013-07-29 21:29:00,94.0,46.8,29.41,South,176,11.5,13.6,19,-99.99,,,0.00,0,rob ver 1B,2013-07-30 04:29:00,
2013-07-29 21:30:00,94.0,46.9,29.41,South,178,11.2,14.9,20,-99.99,,,0.00,0,rob ver 1B,2013-07-30 04:30:00,
2013-07-29 21:31:00,94.0,46.9,29.41,South,178,10.6,13.0,20,-99.99,,,0.00,0,rob ver 1B,2013-07-30 04:31:00,
2013-07-29 21:32:00,93.9,46.9,29.41,South,181,9.8,11.5,20,-99.99,,,0.00,0,rob ver 1B,2013-07-30 04:32:00,
2013-07-29 21:33:00,93.8,47.0,29.41,South,179,10.8,13.6,20,-99.99,,,0.00,0,rob ver 1B,2013-07-30 04:33:00,
2013-07-29 21:34:00,93.8,47.0,29.41,South,175,10.2,11.9,20,-99.99,,,0.00,0,rob ver 1B,2013-07-30 04:34:00,
2013-07-29 21:35:00,93.7,47.1,29.41,South,180,9.3,11.7,20,-99.99,,,0.00,0,rob ver 1B,2013-07-30 04:35:00,
2013-07-29 21:36:00,93.7,47.1,29.41,South,175,10.7,13.4,20,-99.99,,,0.00,0,rob ver 1B,2013-07-30 04:36:00,
2013-07-29 21:37:00,93.7,47.1,29.41,South,175,11.2,13.0,20,-99.99,,,0.00,0,rob ver 1B,2013-07-30 04:37:00,
2013-07-29 21:38:00,93.7,47.2,29.41,South,177,11.4,13.4,20,-99.99,,,0.00,0,rob ver 1B,2013-07-30 04:38:00,
2013-07-29 21:39:00,93.6,47.2,29.41,South,179,10.8,14.0,20,-99.99,,,0.00,0,rob ver 1B,2013-07-30 04:39:00,
2013-07-29 21:40:00,93.6,47.2,29.41,South,178,11.5,15.1,20,-99.99,,,0.00,0,rob ver 1B,2013-07-30 04:40:00,
2013-07-29 21:41:00,93.6,47.2,29.41,South,177,11.7,15.6,20,-99.99,,,0.00,0,rob ver 1B,2013-07-30 04:41:00,
2013-07-29 21:42:00,93.6,47.2,29.41,South,179,12.1,14.2,20,-99.99,,,0.00,0,rob ver 1B,2013-07-30 04:42:00,
2013-07-29 21:43:00,93.6,47.2,29.41,South,180,10.9,13.7,20,-99.99,,,0.00,0,rob ver 1B,2013-07-30 04:43:00,
2013-07-29 21:44:00,93.5,47.2,29.41,South,179,12.2,15.5,20,-99.99,,,0.00,0,rob ver 1B,2013-07-30 04:44:00,
2013-07-29 21:45:00,93.5,47.2,29.41,South,179,13.1,15.9,20,-99.99,,,0.00,0,rob ver 1B,2013-07-30 04:45:00,
2013-07-29 21:46:00,93.5,47.2,29.41,South,178,11.8,14.7,20,-99.99,,,0.00,0,rob ver 1B,2013-07-30 04:46:00,
2013-07-29 21:47:00,93.5,47.2,29.41,South,179,11.9,14.8,20,-99.99,,,0.00,0,rob ver 1B,2013-07-30 04:47:00,
2013-07-29 21:48:00,93.5,47.2,29.41,South,178,11.4,13.1,20,-99.99,,,0.00,0,rob ver 1B,2013-07-30 04:48:00,
2013-07-29 21:49:00,93.4,47.2,29.41,South,183,11.4,14.2,20,-99.99,,,0.00,0,rob ver 1B,2013-07-30 04:49:00,
2013-07-29 21:50:00,93.4,47.2,29.41,South,183,11.4,14.5,20,-99.99,,,0.00,0,rob ver 1B,2013-07-30 04:50:00,
2013-07-29 21:51:00,93.4,47.3,29.41,South,182,9.8,13.6,20,-99.99,,,0.00,0,rob ver 1B,2013-07-30 04:51:00,
2013-07-29 21:52:00,93.3,47.3,29.41,South,184,8.7,11.3,20,-99.99,,,0.00,0,rob ver 1B,2013-07-30 04:52:00,
2013-07-29 21:53:00,93.2,47.3,29.41,South,182,8.5,12.1,20,-99.99,,,0.00,0,rob ver 1B,2013-07-30 04:53:00,
2013-07-29 21:54:00,93.2,47.3,29.41,South,186,8.5,11.9,20,-99.99,,,0.00,0,rob ver 1B,2013-07-30 04:54:00,
2013-07-29 21:55:00,93.1,47.3,29.41,South,183,10.0,12.8,20,-99.99,,,0.00,0,rob ver 1B,2013-07-30 04:55:00,
2013-07-29 21:56:00,93.1,47.3,29.41,South,189,9.5,11.9,20,-99.99,,,0.00,0,rob ver 1B,2013-07-30 04:56:00,
2013-07-29 21:57:00,93.1,47.3,29.41,South,189,9.5,13.6,20,-99.99,,,0.00,0,rob ver 1B,2013-07-30 04:57:00,
2013-07-29 21:58:00,93.1,47.3,29.41,South,187,8.5,10.4,20,-99.99,,,0.00,0,rob ver 1B,2013-07-30 04:58:00,
2013-07-29 21:59:00,93.0,47.3,29.41,SSW,192,9.6,12.0,21,-99.99,,,0.00,0,rob ver 1B,2013-07-30 04:59:00,
2013-07-29 22:00:00,93.0,47.3,29.41,South,188,8.8,10.9,20,-99.99,,,0.00,0,rob ver 1B,2013-07-30 05:00:00,
2013-07-29 22:01:00,92.9,47.3,29.41,South,190,9.3,12.9,21,-99.99,,,0.00,0,rob ver 1B,2013-07-30 05:01:00,
2013-07-29 22:02:00,92.9,47.3,29.41,South,187,8.9,11.3,21,-99.99,,,0.00,0,rob ver 1B,2013-07-30 05:02:00,
2013-07-29 22:03:00,92.8,47.3,29.41,South,190,7.9,10.1,21,-99.99,,,0.00,0,rob ver 1B,2013-07-30 05:03:00,
2013-07-29 22:04:00,92.8,47.4,29.41,South,190,8.2,9.8,21,-99.99,,,0.00,0,rob ver 1B,2013-07-30 05:04:00,
2013-07-29 22:05:00,92.8,47.3,29.41,South,188,10.0,12.3,21,-99.99,,,0.00,0,rob ver 1B,2013-07-30 05:05:00,
2013-07-29 22:06:00,92.8,47.2,29.41,South,190,9.5,12.6,21,-99.99,,,0.00,0,rob ver 1B,2013-07-30 05:06:00,
2013-07-29 22:07:00,92.8,47.3,29.41,South,186,8.6,10.6,21,-99.99,,,0.00,0,rob ver 1B,2013-07-30 05:07:00,
2013-07-29 22:08:00,92.7,47.2,29.41,South,183,7.6,9.2,21,-99.99,,,0.00,0,rob ver 1B,2013-07-30 05:08:00,
2013-07-29 22:09:00,92.6,47.3,29.41,South,188,8.3,10.7,21,-99.99,,,0.00,0,rob ver 1B,2013-07-30 05:09:00,
2013-07-29 22:10:00,92.6,47.3,29.41,South,187,8.6,11.1,21,-99.99,,,0.00,0,rob ver 1B,2013-07-30 05:10:00,
2013-07-29 22:11:00,92.6,47.3,29.41,South,187,9.6,11.5,21,-99.99,,,0.00,0,rob ver 1B,2013-07-30 05:11:00,
2013-07-29 22:12:00,92.5,47.3,29.41,South,189,7.7,9.3,21,-99.99,,,0.00,0,rob ver 1B,2013-07-30 05:12:00,
2013-07-29 22:13:00,92.5,47.4,29.41,South,184,9.4,12.5,21,-99.99,,,0.00,0,rob ver 1B,2013-07-30 05:13:00,
2013-07-29 22:14:00,92.5,47.4,29.41,South,186,8.4,11.4,21,-99.99,,,0.00,0,rob ver 1B,2013-07-30 05:14:00,
2013-07-29 22:15:00,92.4,47.5,29.41,South,187,7.8,10.3,21,-99.99,,,0.00,0,rob ver 1B,2013-07-30 05:15:00,
2013-07-29 22:16:00,92.4,47.6,29.41,South,189,8.3,10.2,21,-99.99,,,0.00,0,rob ver 1B,2013-07-30 05:16:00,
2013-07-29 22:17:00,92.3,47.8,29.41,South,188,8.1,10.3,21,-99.99,,,0.00,0,rob ver 1B,2013-07-30 05:17:00,
2013-07-29 22:18:00,92.2,47.9,29.41,South,189,8.8,10.7,21,-99.99,,,0.00,0,rob ver 1B,2013-07-30 05:18:00,
2013-07-29 22:19:00,92.2,48.0,29.41,South,190,8.0,9.9,22,-99.99,,,0.00,0,rob ver 1B,2013-07-30 05:19:00,
2013-07-29 22:20:00,92.1,48.0,29.41,South,189,8.8,11.0,22,-99.99,,,0.00,0,rob ver 1B,2013-07-30 05:20:00,
2013-07-29 22:21:00,92.1,48.0,29.41,South,188,8.5,11.4,22,-99.99,,,0.00,0,rob ver 1B,2013-07-30 05:21:00,
2013-07-29 22:22:00,92.1,48.0,29.41,South,186,8.5,11.1,22,-99.99,,,0.00,0,rob ver 1B,2013-07-30 05:22:00,
2013-07-29 22:23:00,92.1,48.0,29.41,South,190,8.0,10.6,22,-99.99,,,0.00,0,rob ver 1B,2013-07-30 05:23:00,
2013-07-29 22:24:00,92.0,48.0,29.41,South,183,8.3,10.7,22,-99.99,,,0.00,0,rob ver 1B,2013-07-30 05:24:00,
2013-07-29 22:25:00,92.0,47.9,29.41,South,188,8.8,11.8,22,-99.99,,,0.00,0,rob ver 1B,2013-07-30 05:25:00,
2013-07-29 22:26:00,92.0,47.9,29.41,South,187,8.3,11.2,22,-99.99,,,0.00,0,rob ver 1B,2013-07-30 05:26:00,
2013-07-29 22:27:00,91.9,47.9,29.41,South,182,8.6,11.7,22,-99.99,,,0.00,0,rob ver 1B,2013-07-30 05:27:00,
2013-07-29 22:28:00,91.9,47.8,29.41,South,183,8.2,10.0,22,-99.99,,,0.00,0,rob ver 1B,2013-07-30 05:28:00,
2013-07-29 22:29:00,91.9,47.8,29.41,South,183,8.5,10.8,22,-99.99,,,0.00,0,rob ver 1B,2013-07-30 05:29:00,
2013-07-29 22:30:00,91.9,47.8,29.41,South,185,9.2,11.5,21,-99.99,,,0.00,0,rob ver 1B,2013-07-30 05:30:00,
2013-07-29 22:31:00,91.9,47.7,29.41,South,186,9.5,12.1,22,-99.99,,,0.00,0,rob ver 1B,2013-07-30 05:31:00,
2013-07-29 22:32:00,91.9,47.7,29.41,South,185,10.0,12.5,22,-99.99,,,0.00,0,rob ver 1B,2013-07-30 05:32:00,
2013-07-29 22:33:00,91.9,47.8,29.41,South,184,8.7,9.9,22,-99.99,,,0.00,0,rob ver 1B,2013-07-30 05:33:00,
2013-07-29 22:34:00,91.8,47.9,29.41,South,181,9.2,10.9,22,-99.99,,,0.00,0,rob ver 1B,2013-07-30 05:34:00,
2013-07-29 22:35:00,91.8,48.0,29.41,South,183,9.7,11.9,22,-99.99,,,0.00,0,rob ver 1B,2013-07-30 05:35:00,
2013-07-29 22:36:00,91.7,47.9,29.41,South,181,9.3,11.0,22,-99.99,,,0.00,0,rob ver 1B,2013-07-30 05:36:00,
2013-07-29 22:37:00,91.7,48.0,29.41,South,183,10.2,12.5,22,-99.99,,,0.00,0,rob ver 1B,2013-07-30 05:37:00,
2013-07-29 22:38:00,91.6,48.0,29.41,South,185,9.1,11.5,22,-99.99,,,0.00,0,rob ver 1B,2013-07-30 05:38:00,
2013-07-29 22:39:00,91.6,48.0,29.41,South,184,9.2,11.6,22,-99.99,,,0.00,0,rob ver 1B,2013-07-30 05:39:00,
2013-07-29 22:40:00,91.5,48.0,29.41,South,180,9.5,11.8,22,-99.99,,,0.00,0,rob ver 1B,2013-07-30 05:40:00,
2013-07-29 22:41:00,91.5,47.9,29.41,South,183,9.9,11.8,22,-99.99,,,0.00,0,rob ver 1B,2013-07-30 05:41:00,
2013-07-29 22:42:00,91.5,47.9,29.41,South,184,9.8,13.7,22,-99.99,,,0.00,0,rob ver 1B,2013-07-30 05:42:00,
2013-07-29 22:43:00,91.5,47.9,29.41,South,183,10.5,13.2,22,-99.99,,,0.00,0,rob ver 1B,2013-07-30 05:43:00,
2013-07-29 22:44:00,91.5,47.9,29.41,South,181,10.2,12.7,22,-99.99,,,0.00,0,rob ver 1B,2013-07-30 05:44:00,
2013-07-29 22:45:00,91.4,47.9,29.41,South,180,9.4,10.7,22,-99.99,,,0.00,0,rob ver 1B,2013-07-30 05:45:00,
2013-07-29 22:46:00,91.3,48.0,29.41,South,176,8.0,10.4,22,-99.99,,,0.00,0,rob ver 1B,2013-07-30 05:46:00,
2013-07-29 22:47:00,91.3,48.0,29.41,South,173,8.9,10.6,22,-99.99,,,0.00,0,rob ver 1B,2013-07-30 05:47:00,
2013-07-29 22:48:00,91.2,48.0,29.41,South,170,7.4,8.6,22,-99.99,,,0.00,0,rob ver 1B,2013-07-30 05:48:00,
2013-07-29 22:49:00,91.1,47.9,29.41,South,177,9.2,11.1,22,-99.99,,,0.00,0,rob ver 1B,2013-07-30 05:49:00,
2013-07-29 22:50:00,91.1,47.9,29.41,South,178,9.2,11.5,22,-99.99,,,0.00,0,rob ver 1B,2013-07-30 05:50:00,
2013-07-29 22:51:00,91.1,47.8,29.41,South,177,8.7,10.7,22,-99.99,,,0.00,0,rob ver 1B,2013-07-30 05:51:00,
2013-07-29 22:52:00,91.1,47.8,29.41,South,177,8.9,10.9,22,-99.99,,,0.00,0,rob ver 1B,2013-07-30 05:52:00,
2013-07-29 22:53:00,91.1,47.9,29.41,South,171,7.1,9.8,22,-99.99,,,0.00,0,rob ver 1B,2013-07-30 05:53:00,
2013-07-29 22:54:00,91.1,47.8,29.41,South,178,9.0,11.7,22,-99.99,,,0.00,0,rob ver 1B,2013-07-30 05:54:00,
2013-07-29 22:55:00,91.1,47.8,29.41,South,180,9.4,11.7,22,-99.99,,,0.00,0,rob ver 1B,2013-07-30 05:55:00,
2013-07-29 22:56:00,91.0,47.7,29.41,South,178,10.5,13.0,22,-99.99,,,0.00,0,rob ver 1B,2013-07-30 05:56:00,
2013-07-29 22:57:00,91.1,47.6,29.41,South,181,10.0,12.7,22,-99.99,,,0.00,0,rob ver 1B,2013-07-30 05:57:00,
2013-07-29 22:58:00,91.1,47.7,29.41,South,181,10.1,12.5,22,-99.99,,,0.00,0,rob ver 1B,2013-07-30 05:58:00,
2013-07-29 22:59:00,91.1,47.7,29.41,South,177,9.9,12.3,22,-99.99,,,0.00,0,rob ver 1B,2013-07-30 05:59:00,
2013-07-29 23:00:00,91.0,47.7,29.41,South,178,10.7,13.1,22,-99.99,,,0.00,0,rob ver 1B,2013-07-30 06:00:00,
2013-07-29 23:01:00,91.1,47.6,29.41,South,180,11.6,13.7,22,-99.99,,,0.00,0,rob ver 1B,2013-07-30 06:01:00,
2013-07-29 23:02:00,91.1,47.7,29.41,South,181,10.3,13.6,22,-99.99,,,0.00,0,rob ver 1B,2013-07-30 06:02:00,
2013-07-29 23:03:00,91.1,47.6,29.41,South,180,9.5,11.0,22,-99.99,,,0.00,0,rob ver 1B,2013-07-30 06:03:00,
2013-07-29 23:04:00,91.1,47.6,29.41,South,181,10.8,13.2,22,-99.99,,,0.00,0,rob ver 1B,2013-07-30 06:04:00,
2013-07-29 23:05:00,91.1,47.6,29.41,South,181,10.2,12.4,22,-99.99,,,0.00,0,rob ver 1B,2013-07-30 06:05:00,
2013-07-29 23:06:00,91.0,47.6,29.41,South,182,10.8,13.2,22,-99.99,,,0.00,0,rob ver 1B,2013-07-30 06:06:00,
2013-07-29 23:07:00,91.0,47.5,29.41,South,182,10.9,14.6,22,-99.99,,,0.00,0,rob ver 1B,2013-07-30 06:07:00,
2013-07-29 23:08:00,91.0,47.5,29.41,South,185,11.8,14.7,22,-99.99,,,0.00,0,rob ver 1B,2013-07-30 06:08:00,
2013-07-29 23:09:00,91.1,47.5,29.41,South,187,10.4,12.8,22,-99.99,,,0.00,0,rob ver 1B,2013-07-30 06:09:00,
2013-07-29 23:10:00,91.1,47.4,29.41,South,184,9.3,12.0,22,-99.99,,,0.00,0,rob ver 1B,2013-07-30 06:10:00,
2013-07-29 23:11:00,91.0,47.5,29.41,South,183,9.3,11.8,22,-99.99,,,0.00,0,rob ver 1B,2013-07-30 06:11:00,
2013-07-29 23:12:00,91.0,47.5,29.41,South,185,10.5,13.5,22,-99.99,,,0.00,0,rob ver 1B,2013-07-30 06:12:00,
2013-07-29 23:13:00,91.0,47.5,29.41,South,184,9.3,11.9,22,-99.99,,,0.00,0,rob ver 1B,2013-07-30 06:13:00,
2013-07-29 23:14:00,90.9,47.5,29.41,South,180,9.1,11.3,22,-99.99,,,0.00,0,rob ver 1B,2013-07-30 06:14:00,
2013-07-29 23:15:00,90.9,47.5,29.41,South,180,9.4,11.7,22,-99.99,,,0.00,0,rob ver 1B,2013-07-30 06:15:00,
2013-07-29 23:16:00,90.8,47.5,29.41,South,181,9.5,11.7,22,-99.99,,,0.00,0,rob ver 1B,2013-07-30 06:16:00,
2013-07-29 23:17:00,90.8,47.5,29.41,South,183,10.0,11.9,22,-99.99,,,0.00,0,rob ver 1B,2013-07-30 06:17:00,
2013-07-29 23:18:00,90.8,47.5,29.41,South,185,9.4,11.4,22,-99.99,,,0.00,0,rob ver 1B,2013-07-30 06:18:00,
2013-07-29 23:19:00,90.8,47.5,29.41,South,181,9.7,11.2,22,-99.99,,,0.00,0,rob ver 1B,2013-07-30 06:19:00,
2013-07-29 23:20:00,90.8,47.5,29.41,South,183,9.4,11.5,22,-99.99,,,0.00,0,rob ver 1B,2013-07-30 06:20:00,
2013-07-29 23:21:00,90.8,47.6,29.41,South,179,9.6,11.2,22,-99.99,,,0.00,0,rob ver 1B,2013-07-30 06:21:00,
2013-07-29 23:22:00,90.8,47.6,29.41,South,182,8.5,10.3,22,-99.99,,,0.00,0,rob ver 1B,2013-07-30 06:22:00,
2013-07-29 23:23:00,90.7,47.6,29.41,South,182,8.1,9.3,22,-99.99,,,0.00,0,rob ver 1B,2013-07-30 06:23:00,
2013-07-29 23:24:00,90.7,47.6,29.41,South,180,8.3,10.1,22,-99.99,,,0.00,0,rob ver 1B,2013-07-30 06:24:00,
2013-07-29 23:25:00,90.7,47.6,29.41,South,180,8.1,9.4,22,-99.99,,,0.00,0,rob ver 1B,2013-07-30 06:25:00,
2013-07-29 23:26:00,90.6,47.6,29.41,South,181,7.5,8.8,22,-99.99,,,0.00,0,rob ver 1B,2013-07-30 06:26:00,
2013-07-29 23:27:00,90.6,47.6,29.41,South,180,7.5,9.7,22,-99.99,,,0.00,0,rob ver 1B,2013-07-30 06:27:00,
2013-07-29 23:28:00,90.5,47.6,29.41,South,180,8.0,9.6,22,-99.99,,,0.00,0,rob ver 1B,2013-07-30 06:28:00,
2013-07-29 23:29:00,90.5,47.6,29.41,South,182,7.5,8.9,22,-99.99,,,0.00,0,rob ver 1B,2013-07-30 06:29:00,
2013-07-29 23:30:00,90.5,47.7,29.41,South,182,7.0,8.1,22,-99.99,,,0.00,0,rob ver 1B,2013-07-30 06:30:00,
2013-07-29 23:31:00,90.4,47.7,29.41,South,181,6.6,9.0,23,-99.99,,,0.00,0,rob ver 1B,2013-07-30 06:31:00,
2013-07-29 23:32:00,90.4,47.7,29.41,South,182,7.1,9.2,23,-99.99,,,0.00,0,rob ver 1B,2013-07-30 06:32:00,
2013-07-29 23:33:00,90.3,47.7,29.41,South,183,6.8,7.9,23,-99.99,,,0.00,0,rob ver 1B,2013-07-30 06:33:00,
2013-07-29 23:34:00,90.3,47.7,29.41,South,182,6.3,8.3,23,-99.99,,,0.00,0,rob ver 1B,2013-07-30 06:34:00,
2013-07-29 23:35:00,90.2,47.7,29.41,South,186,6.5,7.6,23,-99.99,,,0.00,0,rob ver 1B,2013-07-30 06:35:00,
2013-07-29 23:36:00,90.2,47.7,29.41,South,187,5.8,6.6,23,-99.99,,,0.00,0,rob ver 1B,2013-07-30 06:36:00,
2013-07-29 23:37:00,90.2,47.7,29.41,South,189,5.2,6.8,23,-99.99,,,0.00,0,rob ver 1B,2013-07-30 06:37:00,
2013-07-29 23:38:00,90.1,47.7,29.41,SSW,192,5.1,6.5,23,-99.99,,,0.00,0,rob ver 1B,2013-07-30 06:38:00,
2013-07-29 23:39:00,90.0,47.7,29.41,SSW,193,5.6,7.3,23,-99.99,,,0.00,0,rob ver 1B,2013-07-30 06:39:00,
2013-07-29 23:40:00,90.0,47.7,29.41,SSW,193,5.7,6.8,23,-99.99,,,0.00,0,rob ver 1B,2013-07-30 06:40:00,
2013-07-29 23:41:00,89.9,47.7,29.41,SSW,192,5.7,7.1,23,-99.99,,,0.00,0,rob ver 1B,2013-07-30 06:41:00,
2013-07-29 23:42:00,89.9,47.7,29.41,SSW,192,5.5,6.9,23,-99.99,,,0.00,0,rob ver 1B,2013-07-30 06:42:00,
2013-07-29 23:43:00,89.9,47.7,29.41,SSW,192,5.3,6.5,23,-99.99,,,0.00,0,rob ver 1B,2013-07-30 06:43:00,
2013-07-29 23:44:00,89.9,47.6,29.41,South,190,5.1,6.2,23,-99.99,,,0.00,0,rob ver 1B,2013-07-30 06:44:00,
2013-07-29 23:45:00,89.9,47.6,29.41,South,188,4.9,6.3,23,-99.99,,,0.00,0,rob ver 1B,2013-07-30 06:45:00,
2013-07-29 23:46:00,90.0,47.6,29.41,South,188,4.4,6.0,23,-99.99,,,0.00,0,rob ver 1B,2013-07-30 06:46:00,
2013-07-29 23:47:00,89.9,47.6,29.41,South,189,4.8,6.2,23,-99.99,,,0.00,0,rob ver 1B,2013-07-30 06:47:00,
2013-07-29 23:48:00,89.9,47.6,29.41,South,189,4.7,6.4,23,-99.99,,,0.00,0,rob ver 1B,2013-07-30 06:48:00,
2013-07-29 23:49:00,90.0,47.6,29.41,SSW,193,5.0,6.3,23,-99.99,,,0.00,0,rob ver 1B,2013-07-30 06:49:00,
2013-07-29 23:50:00,90.0,47.6,29.41,SSW,194,4.7,5.6,23,-99.99,,,0.00,0,rob ver 1B,2013-07-30 06:50:00,
2013-07-29 23:51:00,89.9,47.6,29.41,SSW,194,4.0,5.1,23,-99.99,,,0.00,0,rob ver 1B,2013-07-30 06:51:00,
2013-07-29 23:52:00,89.9,47.6,29.41,South,191,5.2,7.6,23,-99.99,,,0.00,0,rob ver 1B,2013-07-30 06:52:00,
2013-07-29 23:53:00,89.9,47.6,29.41,SSW,198,5.3,7.1,23,-99.99,,,0.00,0,rob ver 1B,2013-07-30 06:53:00,
2013-07-29 23:54:00,89.9,47.6,29.41,SSW,196,5.7,7.9,23,-99.99,,,0.00,0,rob ver 1B,2013-07-30 06:54:00,
2013-07-29 23:55:00,89.9,47.6,29.41,SSW,200,4.7,6.3,23,-99.99,,,0.00,0,rob ver 1B,2013-07-30 06:55:00,
2013-07-29 23:56:00,89.9,47.6,29.41,SSW,203,4.2,5.4,23,-99.99,,,0.00,0,rob ver 1B,2013-07-30 06:56:00,
2013-07-29 23:57:00,89.9,47.6,29.41,SSW,204,4.1,5.4,23,-99.99,,,0.00,0,rob ver 1B,2013-07-30 06:57:00,
2013-07-29 23:58:00,89.9,47.6,29.41,SW,215,5.6,7.0,23,-99.99,,,0.00,0,rob ver 1B,2013-07-30 06:58:00,
2013-07-29 23:59:00,89.9,47.6,29.41,SW,214,5.0,6.6,23,-99.99,,,0.00,0,rob ver 1B,2013-07-30 06:59:00,